Time,TemperatureF,DewpointF,PressureIn,WindDirection,WindDirectionDegrees,WindSpeedMPH,WindSpeedGustMPH,Humidity,HourlyPrecipIn,Conditions,Clouds,dailyrainin,SoftwareType,DateUTC
2013-06-17 00:01:00,63.7,61.9,29.80,WSW,250,0.0,1.0,94,0.00,,,0.00,Wunderground v.1.15,2013-06-17 04:01:00,
2013-06-17 00:02:00,63.7,61.9,29.80,SW,233,0.0,1.0,94,0.00,,,0.00,Wunderground v.1.15,2013-06-17 04:02:00,
2013-06-17 00:03:00,63.6,61.8,29.80,WSW,252,0.0,1.0,94,0.00,,,0.00,Wunderground v.1.15,2013-06-17 04:03:00,
2013-06-17 00:05:00,63.6,61.8,29.81,WSW,255,0.0,1.0,94,0.00,,,0.00,Wunderground v.1.15,2013-06-17 04:05:00,
2013-06-17 00:09:00,63.6,61.8,29.81,WSW,257,0.0,1.0,94,0.00,,,0.00,Wunderground v.1.15,2013-06-17 04:09:00,
2013-06-17 00:10:00,63.7,61.9,29.81,WSW,255,0.0,1.0,94,0.00,,,0.00,Wunderground v.1.15,2013-06-17 04:10:00,
2013-06-17 00:12:00,63.6,61.8,29.81,West,263,0.0,1.0,94,0.00,,,0.00,Wunderground v.1.15,2013-06-17 04:12:00,
2013-06-17 00:14:00,63.6,61.8,29.80,SW,233,0.0,1.0,94,0.00,,,0.00,Wunderground v.1.15,2013-06-17 04:14:00,
2013-06-17 00:17:00,63.6,61.8,29.81,WSW,238,0.0,1.0,94,0.00,,,0.00,Wunderground v.1.15,2013-06-17 04:17:00,
2013-06-17 00:19:00,63.5,61.7,29.81,WSW,238,0.0,1.0,94,0.00,,,0.00,Wunderground v.1.15,2013-06-17 04:19:00,
2013-06-17 00:24:00,63.6,61.8,29.81,West,273,0.0,0.0,94,0.00,,,0.00,Wunderground v.1.15,2013-06-17 04:24:00,
2013-06-17 00:26:00,63.6,61.8,29.81,West,263,0.0,1.0,94,0.00,,,0.00,Wunderground v.1.15,2013-06-17 04:26:00,
2013-06-17 00:27:00,63.7,61.9,29.81,West,263,0.0,1.0,94,0.00,,,0.00,Wunderground v.1.15,2013-06-17 04:27:00,
2013-06-17 00:29:00,63.7,61.9,29.81,West,263,0.0,1.0,94,0.00,,,0.00,Wunderground v.1.15,2013-06-17 04:29:00,
2013-06-17 00:32:00,63.8,62.0,29.81,West,281,2.0,2.0,94,0.00,,,0.00,Wunderground v.1.15,2013-06-17 04:32:00,
2013-06-17 00:33:00,63.8,62.0,29.81,North,360,3.0,3.0,94,0.00,,,0.00,Wunderground v.1.15,2013-06-17 04:33:00,
2013-06-17 00:38:00,63.9,61.8,29.81,West,281,0.0,3.0,93,0.00,,,0.00,Wunderground v.1.15,2013-06-17 04:38:00,
2013-06-17 00:39:00,63.9,61.8,29.81,WNW,283,1.0,3.0,93,0.00,,,0.00,Wunderground v.1.15,2013-06-17 04:39:00,
2013-06-17 00:41:00,63.9,61.8,29.81,NW,311,2.0,2.0,93,0.00,,,0.00,Wunderground v.1.15,2013-06-17 04:41:00,
2013-06-17 00:45:00,63.9,61.8,29.81,West,268,0.0,2.0,93,0.00,,,0.00,Wunderground v.1.15,2013-06-17 04:45:00,
2013-06-17 00:47:00,63.9,61.8,29.81,West,270,0.0,2.0,93,0.00,,,0.00,Wunderground v.1.15,2013-06-17 04:47:00,
2013-06-17 00:48:00,63.9,61.8,29.81,West,270,0.0,2.0,93,0.00,,,0.00,Wunderground v.1.15,2013-06-17 04:48:00,
2013-06-17 00:51:00,63.9,61.8,29.81,West,269,0.0,1.0,93,0.00,,,0.00,Wunderground v.1.15,2013-06-17 04:51:00,
2013-06-17 00:54:00,63.8,62.0,29.81,West,271,0.0,1.0,94,0.00,,,0.00,Wunderground v.1.15,2013-06-17 04:54:00,
2013-06-17 00:57:00,63.8,62.0,29.81,West,271,0.0,1.0,94,0.00,,,0.00,Wunderground v.1.15,2013-06-17 04:57:00,
2013-06-17 01:01:00,63.8,62.0,29.81,WNW,285,0.0,0.0,94,0.00,,,0.00,Wunderground v.1.15,2013-06-17 05:01:00,
2013-06-17 01:02:00,63.8,62.0,29.81,WNW,285,0.0,0.0,94,0.00,,,0.00,Wunderground v.1.15,2013-06-17 05:02:00,
2013-06-17 01:04:00,63.9,62.1,29.81,WNW,283,0.0,2.0,94,0.00,,,0.00,Wunderground v.1.15,2013-06-17 05:04:00,
2013-06-17 01:06:00,63.9,62.1,29.81,WNW,284,0.0,2.0,94,0.00,,,0.00,Wunderground v.1.15,2013-06-17 05:06:00,
2013-06-17 01:09:00,63.9,62.1,29.81,WNW,284,0.0,2.0,94,0.00,,,0.00,Wunderground v.1.15,2013-06-17 05:09:00,
2013-06-17 01:10:00,64.0,62.2,29.81,WNW,284,0.0,0.0,94,0.00,,,0.00,Wunderground v.1.15,2013-06-17 05:10:00,
2013-06-17 01:13:00,64.1,62.3,29.81,WNW,285,0.0,0.0,94,0.00,,,0.00,Wunderground v.1.15,2013-06-17 05:13:00,
2013-06-17 01:14:00,64.1,62.3,29.81,WNW,285,0.0,0.0,94,0.00,,,0.00,Wunderground v.1.15,2013-06-17 05:14:00,
2013-06-17 01:16:00,64.2,62.4,29.81,WNW,288,0.0,0.0,94,0.00,,,0.00,Wunderground v.1.15,2013-06-17 05:16:00,
2013-06-17 01:17:00,64.2,62.4,29.81,WNW,288,0.0,0.0,94,0.00,,,0.00,Wunderground v.1.15,2013-06-17 05:17:00,
2013-06-17 01:19:00,64.3,62.5,29.81,West,281,0.0,0.0,94,0.00,,,0.00,Wunderground v.1.15,2013-06-17 05:19:00,
2013-06-17 01:20:00,64.3,62.5,29.81,West,278,0.0,0.0,94,0.00,,,0.00,Wunderground v.1.15,2013-06-17 05:20:00,
2013-06-17 01:21:00,64.3,62.5,29.81,West,278,0.0,0.0,94,0.00,,,0.00,Wunderground v.1.15,2013-06-17 05:21:00,
2013-06-17 01:24:00,64.4,62.6,29.81,West,278,0.0,0.0,94,0.00,,,0.00,Wunderground v.1.15,2013-06-17 05:24:00,
2013-06-17 01:26:00,64.5,62.7,29.82,West,280,0.0,0.0,94,0.00,,,0.00,Wunderground v.1.15,2013-06-17 05:26:00,
2013-06-17 01:30:00,64.6,62.8,29.82,WNW,285,2.0,2.0,94,0.00,,,0.00,Wunderground v.1.15,2013-06-17 05:30:00,
2013-06-17 01:32:00,64.7,62.9,29.82,West,280,0.0,2.0,94,0.00,,,0.00,Wunderground v.1.15,2013-06-17 05:32:00,
2013-06-17 01:34:00,64.9,63.1,29.82,WNW,282,0.0,2.0,94,0.00,,,0.00,Wunderground v.1.15,2013-06-17 05:34:00,
2013-06-17 01:37:00,65.0,63.2,29.82,WNW,284,3.0,3.0,94,0.00,,,0.00,Wunderground v.1.15,2013-06-17 05:37:00,
2013-06-17 01:40:00,65.1,63.0,29.83,West,278,1.0,1.0,93,0.00,,,0.00,Wunderground v.1.15,2013-06-17 05:40:00,
2013-06-17 01:41:00,65.1,63.0,29.82,West,277,1.0,1.0,93,0.00,,,0.00,Wunderground v.1.15,2013-06-17 05:41:00,
2013-06-17 01:43:00,65.1,63.0,29.82,WNW,288,2.0,2.0,93,0.00,,,0.00,Wunderground v.1.15,2013-06-17 05:43:00,
2013-06-17 01:44:00,65.2,63.1,29.82,West,281,2.0,2.0,93,0.00,,,0.00,Wunderground v.1.15,2013-06-17 05:44:00,
2013-06-17 01:47:00,65.2,63.1,29.82,WNW,293,2.0,2.0,93,0.00,,,0.00,Wunderground v.1.15,2013-06-17 05:47:00,
2013-06-17 01:48:00,65.2,63.1,29.82,West,270,1.0,2.0,93,0.00,,,0.00,Wunderground v.1.15,2013-06-17 05:48:00,
2013-06-17 01:50:00,65.2,63.1,29.82,WNW,285,2.0,2.0,93,0.00,,,0.00,Wunderground v.1.15,2013-06-17 05:50:00,
2013-06-17 01:53:00,65.2,63.1,29.82,West,264,1.0,2.0,93,0.00,,,0.00,Wunderground v.1.15,2013-06-17 05:53:00,
2013-06-17 01:56:00,65.2,63.1,29.82,West,280,1.0,2.0,93,0.00,,,0.00,Wunderground v.1.15,2013-06-17 05:56:00,
2013-06-17 01:58:00,65.2,63.1,29.82,West,264,1.0,2.0,93,0.00,,,0.00,Wunderground v.1.15,2013-06-17 05:58:00,
2013-06-17 01:59:00,65.2,63.1,29.82,WNW,283,1.0,2.0,93,0.00,,,0.00,Wunderground v.1.15,2013-06-17 05:59:00,
2013-06-17 02:00:00,65.2,63.1,29.82,WNW,292,1.0,1.0,93,0.00,,,0.00,Wunderground v.1.15,2013-06-17 06:00:00,
2013-06-17 02:01:00,65.2,63.1,29.82,West,264,2.0,2.0,93,0.00,,,0.00,Wunderground v.1.15,2013-06-17 06:01:00,
2013-06-17 02:03:00,65.2,63.1,29.82,WSW,258,1.0,2.0,93,0.00,,,0.00,Wunderground v.1.15,2013-06-17 06:03:00,
2013-06-17 02:04:00,65.2,63.1,29.82,West,280,0.0,2.0,93,0.00,,,0.00,Wunderground v.1.15,2013-06-17 06:04:00,
2013-06-17 02:05:00,65.3,63.2,29.82,West,278,1.0,2.0,93,0.00,,,0.00,Wunderground v.1.15,2013-06-17 06:05:00,
2013-06-17 02:06:00,65.3,63.2,29.82,West,281,1.0,2.0,93,0.00,,,0.00,Wunderground v.1.15,2013-06-17 06:06:00,
2013-06-17 02:08:00,65.3,63.2,29.82,WNW,287,1.0,2.0,93,0.00,,,0.00,Wunderground v.1.15,2013-06-17 06:08:00,
2013-06-17 02:09:00,65.3,63.2,29.82,West,263,1.0,2.0,93,0.00,,,0.00,Wunderground v.1.15,2013-06-17 06:09:00,
2013-06-17 02:10:00,65.3,63.2,29.82,WSW,257,1.0,2.0,93,0.00,,,0.00,Wunderground v.1.15,2013-06-17 06:10:00,
2013-06-17 02:11:00,65.3,63.2,29.82,West,264,1.0,2.0,93,0.00,,,0.00,Wunderground v.1.15,2013-06-17 06:11:00,
2013-06-17 02:13:00,65.4,63.3,29.82,West,268,0.0,2.0,93,0.00,,,0.00,Wunderground v.1.15,2013-06-17 06:13:00,
2013-06-17 02:14:00,65.4,63.3,29.82,WNW,288,1.0,3.0,93,0.00,,,0.00,Wunderground v.1.15,2013-06-17 06:14:00,
2013-06-17 02:16:00,65.4,63.3,29.82,West,271,1.0,3.0,93,0.00,,,0.00,Wunderground v.1.15,2013-06-17 06:16:00,
2013-06-17 02:17:00,65.4,63.3,29.82,West,276,1.0,3.0,93,0.00,,,0.00,Wunderground v.1.15,2013-06-17 06:17:00,
2013-06-17 02:19:00,65.4,63.3,29.82,West,267,1.0,3.0,93,0.00,,,0.00,Wunderground v.1.15,2013-06-17 06:19:00,
2013-06-17 02:21:00,65.5,63.4,29.82,WSW,258,0.0,1.0,93,0.00,,,0.00,Wunderground v.1.15,2013-06-17 06:21:00,
2013-06-17 02:23:00,65.5,63.4,29.82,West,269,0.0,1.0,93,0.00,,,0.00,Wunderground v.1.15,2013-06-17 06:23:00,
2013-06-17 02:24:00,65.5,63.4,29.83,West,272,1.0,1.0,93,0.00,,,0.00,Wunderground v.1.15,2013-06-17 06:24:00,
2013-06-17 02:26:00,65.5,63.4,29.83,West,278,2.0,2.0,93,0.00,,,0.00,Wunderground v.1.15,2013-06-17 06:26:00,
2013-06-17 02:28:00,65.5,63.4,29.83,West,260,1.0,2.0,93,0.00,,,0.00,Wunderground v.1.15,2013-06-17 06:28:00,
2013-06-17 02:29:00,65.5,63.4,29.82,West,269,0.0,2.0,93,0.00,,,0.00,Wunderground v.1.15,2013-06-17 06:29:00,
2013-06-17 02:30:00,65.5,63.4,29.83,West,270,1.0,2.0,93,0.00,,,0.00,Wunderground v.1.15,2013-06-17 06:30:00,
2013-06-17 02:31:00,65.4,63.0,29.83,West,274,1.0,2.0,92,0.00,,,0.00,Wunderground v.1.15,2013-06-17 06:31:00,
2013-06-17 02:33:00,65.4,63.0,29.83,West,278,2.0,2.0,92,0.00,,,0.00,Wunderground v.1.15,2013-06-17 06:33:00,
2013-06-17 02:34:00,65.4,63.3,29.83,West,274,1.0,2.0,93,0.00,,,0.00,Wunderground v.1.15,2013-06-17 06:34:00,
2013-06-17 02:35:00,65.4,63.3,29.83,West,281,1.0,2.0,93,0.00,,,0.00,Wunderground v.1.15,2013-06-17 06:35:00,
2013-06-17 02:36:00,65.4,63.3,29.83,West,276,1.0,2.0,93,0.00,,,0.00,Wunderground v.1.15,2013-06-17 06:36:00,
2013-06-17 02:38:00,65.4,63.3,29.83,WSW,256,1.0,2.0,93,0.00,,,0.00,Wunderground v.1.15,2013-06-17 06:38:00,
2013-06-17 02:39:00,65.4,63.3,29.83,WSW,256,0.0,2.0,93,0.00,,,0.00,Wunderground v.1.15,2013-06-17 06:39:00,
2013-06-17 02:40:00,65.3,63.2,29.83,WSW,256,0.0,1.0,93,0.00,,,0.00,Wunderground v.1.15,2013-06-17 06:40:00,
2013-06-17 02:41:00,65.3,63.2,29.83,WSW,256,0.0,1.0,93,0.00,,,0.00,Wunderground v.1.15,2013-06-17 06:41:00,
2013-06-17 02:42:00,65.3,63.2,29.83,WSW,256,0.0,1.0,93,0.00,,,0.00,Wunderground v.1.15,2013-06-17 06:42:00,
2013-06-17 02:44:00,65.2,63.1,29.83,West,267,0.0,1.0,93,0.00,,,0.00,Wunderground v.1.15,2013-06-17 06:44:00,
2013-06-17 02:45:00,65.2,63.1,29.83,West,267,0.0,1.0,93,0.00,,,0.00,Wunderground v.1.15,2013-06-17 06:45:00,
2013-06-17 02:47:00,65.2,63.1,29.83,West,267,0.0,1.0,93,0.00,,,0.00,Wunderground v.1.15,2013-06-17 06:47:00,
2013-06-17 02:49:00,65.1,63.0,29.83,WSW,248,1.0,1.0,93,0.00,,,0.00,Wunderground v.1.15,2013-06-17 06:49:00,
2013-06-17 02:50:00,65.1,63.0,29.83,WSW,248,0.0,1.0,93,0.00,,,0.00,Wunderground v.1.15,2013-06-17 06:50:00,
2013-06-17 02:52:00,65.0,62.9,29.83,WSW,249,0.0,1.0,93,0.00,,,0.00,Wunderground v.1.15,2013-06-17 06:52:00,
2013-06-17 02:54:00,65.0,62.9,29.83,WSW,242,0.0,1.0,93,0.00,,,0.00,Wunderground v.1.15,2013-06-17 06:54:00,
2013-06-17 02:55:00,65.0,62.9,29.83,WSW,242,1.0,1.0,93,0.00,,,0.00,Wunderground v.1.15,2013-06-17 06:55:00,
2013-06-17 02:56:00,65.0,62.9,29.83,WSW,242,0.0,1.0,93,0.00,,,0.00,Wunderground v.1.15,2013-06-17 06:56:00,
2013-06-17 02:57:00,65.0,62.9,29.83,WSW,242,0.0,1.0,93,0.00,,,0.00,Wunderground v.1.15,2013-06-17 06:57:00,
2013-06-17 03:00:00,64.9,62.8,29.83,WSW,243,0.0,0.0,93,0.00,,,0.00,Wunderground v.1.15,2013-06-17 07:00:00,
2013-06-17 03:01:00,64.9,62.8,29.83,WSW,242,0.0,0.0,93,0.00,,,0.00,Wunderground v.1.15,2013-06-17 07:01:00,
2013-06-17 03:02:00,64.8,62.7,29.83,WSW,242,0.0,0.0,93,0.00,,,0.00,Wunderground v.1.15,2013-06-17 07:02:00,
2013-06-17 03:05:00,64.7,62.9,29.83,WSW,242,0.0,0.0,94,0.00,,,0.00,Wunderground v.1.15,2013-06-17 07:05:00,
2013-06-17 03:06:00,64.7,62.9,29.83,WSW,242,0.0,0.0,94,0.00,,,0.00,Wunderground v.1.15,2013-06-17 07:06:00,
2013-06-17 03:07:00,64.7,62.9,29.83,WSW,242,0.0,0.0,94,0.00,,,0.00,Wunderground v.1.15,2013-06-17 07:07:00,
2013-06-17 03:10:00,64.6,62.8,29.83,WSW,242,0.0,0.0,94,0.00,,,0.00,Wunderground v.1.15,2013-06-17 07:10:00,
2013-06-17 03:11:00,64.6,62.8,29.83,WSW,242,0.0,0.0,94,0.00,,,0.00,Wunderground v.1.15,2013-06-17 07:11:00,
2013-06-17 03:12:00,64.5,62.7,29.83,WSW,242,0.0,0.0,94,0.00,,,0.00,Wunderground v.1.15,2013-06-17 07:12:00,
2013-06-17 03:15:00,64.5,62.7,29.83,WSW,241,0.0,0.0,94,0.00,,,0.00,Wunderground v.1.15,2013-06-17 07:15:00,
2013-06-17 03:16:00,64.5,62.7,29.83,WSW,242,0.0,0.0,94,0.00,,,0.00,Wunderground v.1.15,2013-06-17 07:16:00,
2013-06-17 03:17:00,64.4,62.6,29.83,WSW,242,0.0,0.0,94,0.00,,,0.00,Wunderground v.1.15,2013-06-17 07:17:00,
2013-06-17 03:18:00,64.4,62.6,29.83,WSW,241,0.0,0.0,94,0.00,,,0.00,Wunderground v.1.15,2013-06-17 07:18:00,
2013-06-17 03:20:00,64.3,62.5,29.84,WSW,242,0.0,0.0,94,0.00,,,0.00,Wunderground v.1.15,2013-06-17 07:20:00,
2013-06-17 03:21:00,64.3,62.5,29.84,WSW,242,0.0,0.0,94,0.00,,,0.00,Wunderground v.1.15,2013-06-17 07:21:00,
2013-06-17 03:22:00,64.3,62.5,29.83,WSW,242,0.0,0.0,94,0.00,,,0.00,Wunderground v.1.15,2013-06-17 07:22:00,
2013-06-17 03:23:00,64.3,62.5,29.83,WSW,242,0.0,0.0,94,0.00,,,0.00,Wunderground v.1.15,2013-06-17 07:23:00,
2013-06-17 03:25:00,64.2,62.4,29.83,WSW,243,0.0,0.0,94,0.00,,,0.00,Wunderground v.1.15,2013-06-17 07:25:00,
2013-06-17 03:26:00,64.2,62.4,29.83,WSW,242,0.0,0.0,94,0.00,,,0.00,Wunderground v.1.15,2013-06-17 07:26:00,
2013-06-17 03:27:00,64.1,62.3,29.83,WSW,243,0.0,0.0,94,0.00,,,0.00,Wunderground v.1.15,2013-06-17 07:27:00,
2013-06-17 03:28:00,64.1,62.6,29.83,WSW,243,0.0,0.0,95,0.00,,,0.00,Wunderground v.1.15,2013-06-17 07:28:00,
2013-06-17 03:31:00,64.1,62.6,29.83,WSW,242,0.0,0.0,95,0.00,,,0.00,Wunderground v.1.15,2013-06-17 07:31:00,
2013-06-17 03:32:00,64.1,62.6,29.83,WSW,242,0.0,0.0,95,0.00,,,0.00,Wunderground v.1.15,2013-06-17 07:32:00,
2013-06-17 03:33:00,64.1,62.6,29.83,WSW,242,0.0,0.0,95,0.00,,,0.00,Wunderground v.1.15,2013-06-17 07:33:00,
2013-06-17 03:36:00,64.0,62.5,29.83,WSW,242,0.0,0.0,95,0.00,,,0.00,Wunderground v.1.15,2013-06-17 07:36:00,
2013-06-17 03:37:00,63.9,62.4,29.83,WSW,243,0.0,0.0,95,0.00,,,0.00,Wunderground v.1.15,2013-06-17 07:37:00,
2013-06-17 03:38:00,63.9,62.4,29.83,WSW,243,0.0,1.0,95,0.00,,,0.00,Wunderground v.1.15,2013-06-17 07:38:00,
2013-06-17 03:41:00,63.9,62.4,29.84,WSW,243,0.0,0.0,95,0.00,,,0.00,Wunderground v.1.15,2013-06-17 07:41:00,
2013-06-17 03:42:00,63.9,62.4,29.84,WSW,243,0.0,0.0,95,0.00,,,0.00,Wunderground v.1.15,2013-06-17 07:42:00,
2013-06-17 03:43:00,63.9,62.4,29.84,WSW,243,0.0,0.0,95,0.00,,,0.00,Wunderground v.1.15,2013-06-17 07:43:00,
2013-06-17 03:44:00,63.9,62.4,29.83,WSW,243,0.0,0.0,95,0.00,,,0.00,Wunderground v.1.15,2013-06-17 07:44:00,
2013-06-17 03:46:00,63.9,62.4,29.83,WSW,243,0.0,0.0,95,0.00,,,0.00,Wunderground v.1.15,2013-06-17 07:46:00,
2013-06-17 03:47:00,63.9,62.4,29.84,WSW,243,0.0,0.0,95,0.00,,,0.00,Wunderground v.1.15,2013-06-17 07:47:00,
2013-06-17 03:48:00,63.9,62.4,29.84,WSW,245,0.0,0.0,95,0.00,,,0.00,Wunderground v.1.15,2013-06-17 07:48:00,
2013-06-17 03:49:00,63.9,62.4,29.84,WSW,245,0.0,0.0,95,0.00,,,0.00,Wunderground v.1.15,2013-06-17 07:49:00,
2013-06-17 03:51:00,63.8,62.3,29.84,WSW,244,0.0,1.0,95,0.00,,,0.00,Wunderground v.1.15,2013-06-17 07:51:00,
2013-06-17 03:52:00,63.8,62.3,29.84,WSW,255,0.0,1.0,95,0.00,,,0.00,Wunderground v.1.15,2013-06-17 07:52:00,
2013-06-17 03:53:00,63.7,62.2,29.83,WSW,255,0.0,1.0,95,0.00,,,0.00,Wunderground v.1.15,2013-06-17 07:53:00,
2013-06-17 03:54:00,63.7,62.2,29.83,WSW,255,0.0,1.0,95,0.00,,,0.00,Wunderground v.1.15,2013-06-17 07:54:00,
2013-06-17 03:56:00,63.7,62.2,29.84,WSW,257,0.0,1.0,95,0.00,,,0.00,Wunderground v.1.15,2013-06-17 07:56:00,
2013-06-17 03:57:00,63.7,62.2,29.84,WSW,257,0.0,1.0,95,0.00,,,0.00,Wunderground v.1.15,2013-06-17 07:57:00,
2013-06-17 03:59:00,63.6,62.1,29.83,West,264,0.0,1.0,95,0.00,,,0.00,Wunderground v.1.15,2013-06-17 07:59:00,
2013-06-17 04:01:00,63.5,62.0,29.84,West,264,0.0,0.0,95,0.00,,,0.00,Wunderground v.1.15,2013-06-17 08:01:00,
2013-06-17 04:02:00,63.5,62.0,29.84,West,264,0.0,0.0,95,0.00,,,0.00,Wunderground v.1.15,2013-06-17 08:02:00,
2013-06-17 04:04:00,63.5,62.0,29.84,West,260,0.0,1.0,95,0.00,,,0.00,Wunderground v.1.15,2013-06-17 08:04:00,
2013-06-17 04:07:00,63.4,61.9,29.84,West,260,0.0,1.0,95,0.00,,,0.00,Wunderground v.1.15,2013-06-17 08:07:00,
2013-06-17 04:08:00,63.4,61.9,29.84,West,260,0.0,1.0,95,0.00,,,0.00,Wunderground v.1.15,2013-06-17 08:08:00,
2013-06-17 04:09:00,63.4,61.9,29.84,West,262,0.0,1.0,95,0.00,,,0.00,Wunderground v.1.15,2013-06-17 08:09:00,
2013-06-17 04:12:00,63.3,61.8,29.84,West,262,0.0,0.0,95,0.00,,,0.00,Wunderground v.1.15,2013-06-17 08:12:00,
2013-06-17 04:13:00,63.3,61.8,29.84,West,262,0.0,0.0,95,0.00,,,0.00,Wunderground v.1.15,2013-06-17 08:13:00,
2013-06-17 04:14:00,63.2,61.7,29.84,West,260,0.0,0.0,95,0.00,,,0.00,Wunderground v.1.15,2013-06-17 08:14:00,
2013-06-17 04:17:00,63.2,61.7,29.84,West,262,0.0,0.0,95,0.00,,,0.00,Wunderground v.1.15,2013-06-17 08:17:00,
2013-06-17 04:18:00,63.2,61.7,29.84,West,261,0.0,0.0,95,0.00,,,0.00,Wunderground v.1.15,2013-06-17 08:18:00,
2013-06-17 04:19:00,63.1,61.6,29.84,West,260,0.0,0.0,95,0.00,,,0.00,Wunderground v.1.15,2013-06-17 08:19:00,
2013-06-17 04:20:00,63.1,61.6,29.84,West,260,0.0,0.0,95,0.00,,,0.00,Wunderground v.1.15,2013-06-17 08:20:00,
2013-06-17 04:22:00,63.2,62.0,29.84,West,260,0.0,0.0,96,0.00,,,0.00,Wunderground v.1.15,2013-06-17 08:22:00,
2013-06-17 04:24:00,63.2,62.0,29.84,West,260,0.0,0.0,96,0.00,,,0.00,Wunderground v.1.15,2013-06-17 08:24:00,
2013-06-17 04:25:00,63.1,61.9,29.84,West,262,0.0,0.0,96,0.00,,,0.00,Wunderground v.1.15,2013-06-17 08:25:00,
2013-06-17 04:27:00,63.1,61.9,29.84,WSW,256,0.0,0.0,96,0.00,,,0.00,Wunderground v.1.15,2013-06-17 08:27:00,
2013-06-17 04:28:00,63.1,61.9,29.84,WSW,256,0.0,0.0,96,0.00,,,0.00,Wunderground v.1.15,2013-06-17 08:28:00,
2013-06-17 04:29:00,63.1,61.9,29.84,WSW,256,0.0,0.0,96,0.00,,,0.00,Wunderground v.1.15,2013-06-17 08:29:00,
2013-06-17 04:30:00,63.1,61.9,29.84,WSW,256,0.0,0.0,96,0.00,,,0.00,Wunderground v.1.15,2013-06-17 08:30:00,
2013-06-17 04:33:00,63.2,62.0,29.84,WSW,256,0.0,0.0,96,0.00,,,0.00,Wunderground v.1.15,2013-06-17 08:33:00,
2013-06-17 04:34:00,63.1,61.9,29.84,WSW,256,0.0,0.0,96,0.00,,,0.00,Wunderground v.1.15,2013-06-17 08:34:00,
2013-06-17 04:35:00,63.2,62.0,29.84,WSW,256,0.0,0.0,96,0.00,,,0.00,Wunderground v.1.15,2013-06-17 08:35:00,
2013-06-17 04:38:00,63.2,62.0,29.84,WSW,256,0.0,0.0,96,0.00,,,0.00,Wunderground v.1.15,2013-06-17 08:38:00,
2013-06-17 04:39:00,63.2,62.0,29.84,WSW,256,0.0,0.0,96,0.00,,,0.00,Wunderground v.1.15,2013-06-17 08:39:00,
2013-06-17 04:40:00,63.2,62.0,29.84,WSW,256,0.0,0.0,96,0.00,,,0.00,Wunderground v.1.15,2013-06-17 08:40:00,
2013-06-17 04:43:00,63.2,62.0,29.84,West,260,0.0,0.0,96,0.00,,,0.00,Wunderground v.1.15,2013-06-17 08:43:00,
2013-06-17 04:44:00,63.2,62.0,29.84,WSW,257,0.0,0.0,96,0.00,,,0.00,Wunderground v.1.15,2013-06-17 08:44:00,
2013-06-17 04:45:00,63.2,62.0,29.84,WSW,257,0.0,0.0,96,0.00,,,0.00,Wunderground v.1.15,2013-06-17 08:45:00,
2013-06-17 04:48:00,63.1,61.6,29.84,WSW,257,0.0,0.0,95,0.00,,,0.00,Wunderground v.1.15,2013-06-17 08:48:00,
2013-06-17 04:50:00,63.1,61.6,29.84,WSW,257,0.0,0.0,95,0.00,,,0.00,Wunderground v.1.15,2013-06-17 08:50:00,
2013-06-17 04:51:00,63.1,61.6,29.84,West,259,0.0,1.0,95,0.00,,,0.00,Wunderground v.1.15,2013-06-17 08:51:00,
2013-06-17 04:53:00,63.1,61.6,29.84,WSW,257,0.0,1.0,95,0.00,,,0.00,Wunderground v.1.15,2013-06-17 08:53:00,
2013-06-17 04:54:00,63.1,61.6,29.84,WSW,257,0.0,1.0,95,0.00,,,0.00,Wunderground v.1.15,2013-06-17 08:54:00,
2013-06-17 04:55:00,63.1,61.6,29.85,WSW,257,0.0,1.0,95,0.00,,,0.00,Wunderground v.1.15,2013-06-17 08:55:00,
2013-06-17 04:56:00,63.1,61.6,29.84,WSW,257,0.0,1.0,95,0.00,,,0.00,Wunderground v.1.15,2013-06-17 08:56:00,
2013-06-17 04:58:00,63.1,61.6,29.85,West,269,0.0,1.0,95,0.00,,,0.00,Wunderground v.1.15,2013-06-17 08:58:00,
2013-06-17 04:59:00,63.1,61.6,29.85,West,269,0.0,1.0,95,0.00,,,0.00,Wunderground v.1.15,2013-06-17 08:59:00,
2013-06-17 05:00:00,63.1,61.6,29.85,West,268,0.0,0.0,95,0.00,,,0.00,Wunderground v.1.15,2013-06-17 09:00:00,
2013-06-17 05:01:00,63.2,61.7,29.85,West,264,1.0,1.0,95,0.00,,,0.00,Wunderground v.1.15,2013-06-17 09:01:00,
2013-06-17 05:04:00,63.2,61.7,29.85,West,262,0.0,1.0,95,0.00,,,0.00,Wunderground v.1.15,2013-06-17 09:04:00,
2013-06-17 05:06:00,63.2,61.7,29.85,West,266,0.0,1.0,95,0.00,,,0.00,Wunderground v.1.15,2013-06-17 09:06:00,
2013-06-17 05:07:00,63.2,61.7,29.85,West,267,0.0,1.0,95,0.00,,,0.00,Wunderground v.1.15,2013-06-17 09:07:00,
2013-06-17 05:09:00,63.2,61.7,29.85,WNW,301,0.0,1.0,95,0.00,,,0.00,Wunderground v.1.15,2013-06-17 09:09:00,
2013-06-17 05:11:00,63.3,61.8,29.85,West,262,0.0,1.0,95,0.00,,,0.00,Wunderground v.1.15,2013-06-17 09:11:00,
2013-06-17 05:12:00,63.3,61.8,29.85,NW,316,0.0,1.0,95,0.00,,,0.00,Wunderground v.1.15,2013-06-17 09:12:00,
2013-06-17 05:14:00,63.3,61.8,29.85,West,280,0.0,1.0,95,0.00,,,0.00,Wunderground v.1.15,2013-06-17 09:14:00,
2013-06-17 05:15:00,63.4,61.9,29.85,WSW,253,0.0,1.0,95,0.00,,,0.00,Wunderground v.1.15,2013-06-17 09:15:00,
2013-06-17 05:16:00,63.4,61.9,29.85,WSW,255,0.0,1.0,95,0.00,,,0.00,Wunderground v.1.15,2013-06-17 09:16:00,
2013-06-17 05:17:00,63.4,61.9,29.85,WSW,253,0.0,1.0,95,0.00,,,0.00,Wunderground v.1.15,2013-06-17 09:17:00,
2013-06-17 05:19:00,63.5,62.0,29.85,WSW,252,0.0,1.0,95,0.00,,,0.00,Wunderground v.1.15,2013-06-17 09:19:00,
2013-06-17 05:20:00,63.5,62.0,29.85,WSW,248,0.0,0.0,95,0.00,,,0.00,Wunderground v.1.15,2013-06-17 09:20:00,
2013-06-17 05:21:00,63.5,62.0,29.85,WSW,248,0.0,0.0,95,0.00,,,0.00,Wunderground v.1.15,2013-06-17 09:21:00,
2013-06-17 05:22:00,63.5,62.0,29.85,WSW,248,0.0,0.0,95,0.00,,,0.00,Wunderground v.1.15,2013-06-17 09:22:00,
2013-06-17 05:24:00,63.5,62.0,29.85,WSW,246,0.0,0.0,95,0.00,,,0.00,Wunderground v.1.15,2013-06-17 09:24:00,
2013-06-17 05:25:00,63.5,62.0,29.85,WSW,246,0.0,0.0,95,0.00,,,0.00,Wunderground v.1.15,2013-06-17 09:25:00,
2013-06-17 05:26:00,63.6,62.1,29.85,WSW,246,0.0,0.0,95,0.00,,,0.00,Wunderground v.1.15,2013-06-17 09:26:00,
2013-06-17 05:28:00,63.5,62.0,29.85,WSW,246,0.0,0.0,95,0.00,,,0.00,Wunderground v.1.15,2013-06-17 09:28:00,
2013-06-17 05:30:00,63.5,62.0,29.85,WSW,246,0.0,0.0,95,0.00,,,0.00,Wunderground v.1.15,2013-06-17 09:30:00,
2013-06-17 05:31:00,63.5,62.0,29.85,WSW,246,0.0,0.0,95,0.00,,,0.00,Wunderground v.1.15,2013-06-17 09:31:00,
2013-06-17 05:32:00,63.5,62.0,29.85,WSW,246,0.0,0.0,95,0.00,,,0.00,Wunderground v.1.15,2013-06-17 09:32:00,
2013-06-17 05:33:00,63.5,62.0,29.85,WSW,246,0.0,0.0,95,0.00,,,0.00,Wunderground v.1.15,2013-06-17 09:33:00,
2013-06-17 05:35:00,63.4,61.9,29.85,WSW,246,0.0,0.0,95,0.00,,,0.00,Wunderground v.1.15,2013-06-17 09:35:00,
2013-06-17 05:36:00,63.4,61.9,29.85,WSW,246,0.0,0.0,95,0.00,,,0.00,Wunderground v.1.15,2013-06-17 09:36:00,
2013-06-17 05:37:00,63.4,61.9,29.85,WSW,246,0.0,0.0,95,0.00,,,0.00,Wunderground v.1.15,2013-06-17 09:37:00,
2013-06-17 05:38:00,63.4,61.9,29.85,WSW,246,0.0,0.0,95,0.00,,,0.00,Wunderground v.1.15,2013-06-17 09:38:00,
2013-06-17 05:40:00,63.4,61.9,29.85,WSW,246,0.0,0.0,95,0.00,,,0.00,Wunderground v.1.15,2013-06-17 09:40:00,
2013-06-17 05:41:00,63.4,61.9,29.86,WSW,246,0.0,0.0,95,0.00,,,0.00,Wunderground v.1.15,2013-06-17 09:41:00,
2013-06-17 05:42:00,63.4,61.9,29.86,WSW,246,0.0,0.0,95,0.00,,,0.00,Wunderground v.1.15,2013-06-17 09:42:00,
2013-06-17 05:43:00,63.4,61.9,29.86,WSW,246,0.0,0.0,95,0.00,,,0.00,Wunderground v.1.15,2013-06-17 09:43:00,
2013-06-17 05:45:00,63.4,61.9,29.86,WSW,246,0.0,0.0,95,0.00,,,0.00,Wunderground v.1.15,2013-06-17 09:45:00,
2013-06-17 05:46:00,63.4,61.9,29.86,WSW,246,0.0,0.0,95,0.00,,,0.00,Wunderground v.1.15,2013-06-17 09:46:00,
2013-06-17 05:47:00,63.4,61.9,29.86,WSW,246,0.0,0.0,95,0.00,,,0.00,Wunderground v.1.15,2013-06-17 09:47:00,
2013-06-17 05:48:00,63.4,61.9,29.86,WSW,246,0.0,0.0,95,0.00,,,0.00,Wunderground v.1.15,2013-06-17 09:48:00,
2013-06-17 05:51:00,63.4,61.9,29.86,WSW,246,0.0,0.0,95,0.00,,,0.00,Wunderground v.1.15,2013-06-17 09:51:00,
2013-06-17 05:52:00,63.4,61.9,29.86,WSW,242,0.0,0.0,95,0.00,,,0.00,Wunderground v.1.15,2013-06-17 09:52:00,
2013-06-17 05:53:00,63.5,62.0,29.86,WSW,253,0.0,2.0,95,0.00,,,0.00,Wunderground v.1.15,2013-06-17 09:53:00,
2013-06-17 05:56:00,63.5,62.0,29.86,WSW,242,0.0,2.0,95,0.00,,,0.00,Wunderground v.1.15,2013-06-17 09:56:00,
2013-06-17 05:57:00,63.5,62.3,29.86,WSW,253,0.0,2.0,96,0.00,,,0.00,Wunderground v.1.15,2013-06-17 09:57:00,
2013-06-17 05:58:00,63.5,62.3,29.86,WSW,246,0.0,2.0,96,0.00,,,0.00,Wunderground v.1.15,2013-06-17 09:58:00,
2013-06-17 06:01:00,63.5,62.0,29.86,West,262,0.0,1.0,95,0.00,,,0.00,Wunderground v.1.15,2013-06-17 10:01:00,
2013-06-17 06:02:00,63.5,62.0,29.86,WSW,252,0.0,1.0,95,0.00,,,0.00,Wunderground v.1.15,2013-06-17 10:02:00,
2013-06-17 06:03:00,63.5,62.0,29.86,WSW,253,0.0,1.0,95,0.00,,,0.00,Wunderground v.1.15,2013-06-17 10:03:00,
2013-06-17 06:06:00,63.5,62.3,29.87,WSW,257,0.0,1.0,96,0.00,,,0.00,Wunderground v.1.15,2013-06-17 10:06:00,
2013-06-17 06:07:00,63.5,62.3,29.87,WSW,239,1.0,1.0,96,0.00,,,0.00,Wunderground v.1.15,2013-06-17 10:07:00,
2013-06-17 06:08:00,63.5,62.3,29.87,SW,236,1.0,1.0,96,0.00,,,0.00,Wunderground v.1.15,2013-06-17 10:08:00,
2013-06-17 06:11:00,63.5,62.3,29.87,SW,228,0.0,1.0,96,0.00,,,0.00,Wunderground v.1.15,2013-06-17 10:11:00,
2013-06-17 06:12:00,63.5,62.3,29.87,SW,228,0.0,1.0,96,0.00,,,0.00,Wunderground v.1.15,2013-06-17 10:12:00,
2013-06-17 06:13:00,63.5,62.3,29.87,SW,228,0.0,1.0,96,0.00,,,0.00,Wunderground v.1.15,2013-06-17 10:13:00,
2013-06-17 06:16:00,63.6,62.4,29.87,SW,228,0.0,1.0,96,0.00,,,0.00,Wunderground v.1.15,2013-06-17 10:16:00,
2013-06-17 06:17:00,63.6,62.4,29.87,SW,228,0.0,1.0,96,0.00,,,0.00,Wunderground v.1.15,2013-06-17 10:17:00,
2013-06-17 06:18:00,63.6,62.4,29.87,SW,228,0.0,1.0,96,0.00,,,0.00,Wunderground v.1.15,2013-06-17 10:18:00,
2013-06-17 06:22:00,63.6,62.4,29.87,SW,228,0.0,0.0,96,0.00,,,0.00,Wunderground v.1.15,2013-06-17 10:22:00,
2013-06-17 06:23:00,63.7,62.5,29.87,SW,228,0.0,0.0,96,0.00,,,0.00,Wunderground v.1.15,2013-06-17 10:23:00,
2013-06-17 06:24:00,63.7,62.5,29.87,SW,228,0.0,0.0,96,0.00,,,0.00,Wunderground v.1.15,2013-06-17 10:24:00,
2013-06-17 06:27:00,63.7,62.5,29.87,SW,228,0.0,0.0,96,0.00,,,0.00,Wunderground v.1.15,2013-06-17 10:27:00,
2013-06-17 06:28:00,63.7,62.5,29.87,SW,228,0.0,0.0,96,0.00,,,0.00,Wunderground v.1.15,2013-06-17 10:28:00,
2013-06-17 06:29:00,63.7,62.5,29.87,SW,228,0.0,0.0,96,0.00,,,0.00,Wunderground v.1.15,2013-06-17 10:29:00,
2013-06-17 06:30:00,63.7,62.5,29.87,SW,228,0.0,0.0,96,0.00,,,0.00,Wunderground v.1.15,2013-06-17 10:30:00,
2013-06-17 06:32:00,63.7,62.5,29.87,SW,228,0.0,0.0,96,0.00,,,0.00,Wunderground v.1.15,2013-06-17 10:32:00,
2013-06-17 06:33:00,63.7,62.5,29.87,SW,228,0.0,0.0,96,0.00,,,0.00,Wunderground v.1.15,2013-06-17 10:33:00,
2013-06-17 06:34:00,63.7,62.5,29.87,SW,228,0.0,0.0,96,0.00,,,0.00,Wunderground v.1.15,2013-06-17 10:34:00,
2013-06-17 06:35:00,63.7,62.5,29.87,SW,228,0.0,0.0,96,0.00,,,0.00,Wunderground v.1.15,2013-06-17 10:35:00,
2013-06-17 06:37:00,63.8,62.6,29.87,SW,228,0.0,0.0,96,0.00,,,0.00,Wunderground v.1.15,2013-06-17 10:37:00,
2013-06-17 06:38:00,63.8,62.6,29.87,SW,228,0.0,0.0,96,0.00,,,0.00,Wunderground v.1.15,2013-06-17 10:38:00,
2013-06-17 06:39:00,63.8,62.6,29.87,SW,228,0.0,0.0,96,0.00,,,0.00,Wunderground v.1.15,2013-06-17 10:39:00,
2013-06-17 06:41:00,63.8,62.6,29.87,SW,228,0.0,0.0,96,0.00,,,0.00,Wunderground v.1.15,2013-06-17 10:41:00,
2013-06-17 06:42:00,63.9,62.7,29.88,SW,228,0.0,0.0,96,0.00,,,0.00,Wunderground v.1.15,2013-06-17 10:42:00,
2013-06-17 06:43:00,63.9,62.7,29.88,SW,228,0.0,0.0,96,0.00,,,0.00,Wunderground v.1.15,2013-06-17 10:43:00,
2013-06-17 06:44:00,63.9,62.7,29.88,SW,228,0.0,0.0,96,0.00,,,0.00,Wunderground v.1.15,2013-06-17 10:44:00,
2013-06-17 06:46:00,64.0,62.8,29.88,SW,228,0.0,0.0,96,0.00,,,0.00,Wunderground v.1.15,2013-06-17 10:46:00,
2013-06-17 06:47:00,64.1,62.6,29.88,SW,228,0.0,0.0,95,0.00,,,0.00,Wunderground v.1.15,2013-06-17 10:47:00,
2013-06-17 06:48:00,64.1,62.6,29.88,SW,228,0.0,0.0,95,0.00,,,0.00,Wunderground v.1.15,2013-06-17 10:48:00,
2013-06-17 06:49:00,64.2,62.7,29.88,SW,229,0.0,1.0,95,0.00,,,0.00,Wunderground v.1.15,2013-06-17 10:49:00,
2013-06-17 06:51:00,64.3,62.8,29.88,SW,236,0.0,1.0,95,0.00,,,0.00,Wunderground v.1.15,2013-06-17 10:51:00,
2013-06-17 06:53:00,64.4,62.9,29.88,SW,236,0.0,1.0,95,0.00,,,0.00,Wunderground v.1.15,2013-06-17 10:53:00,
2013-06-17 06:54:00,64.4,62.9,29.88,SW,231,0.0,1.0,95,0.00,,,0.00,Wunderground v.1.15,2013-06-17 10:54:00,
2013-06-17 06:56:00,64.4,62.9,29.88,SW,232,1.0,1.0,95,0.00,,,0.00,Wunderground v.1.15,2013-06-17 10:56:00,
2013-06-17 06:58:00,64.4,62.9,29.88,WSW,251,0.0,2.0,95,0.00,,,0.00,Wunderground v.1.15,2013-06-17 10:58:00,
2013-06-17 06:59:00,64.4,62.9,29.88,SW,236,2.0,2.0,95,0.00,,,0.00,Wunderground v.1.15,2013-06-17 10:59:00,
2013-06-17 07:02:00,64.3,62.8,29.88,WSW,239,3.0,3.0,95,0.00,,,0.00,Wunderground v.1.15,2013-06-17 11:02:00,
2013-06-17 07:04:00,64.2,62.7,29.88,WSW,249,1.0,3.0,95,0.00,,,0.00,Wunderground v.1.15,2013-06-17 11:04:00,
2013-06-17 07:07:00,64.2,62.7,29.88,WSW,255,1.0,3.0,95,0.00,,,0.00,Wunderground v.1.15,2013-06-17 11:07:00,
2013-06-17 07:09:00,64.2,62.7,29.88,West,266,0.0,3.0,95,0.00,,,0.00,Wunderground v.1.15,2013-06-17 11:09:00,
2013-06-17 07:10:00,64.2,62.7,29.88,West,271,0.0,1.0,95,0.00,,,0.00,Wunderground v.1.15,2013-06-17 11:10:00,
2013-06-17 07:12:00,64.3,62.8,29.88,West,271,1.0,2.0,95,0.00,,,0.00,Wunderground v.1.15,2013-06-17 11:12:00,
2013-06-17 07:14:00,64.3,62.8,29.88,West,274,0.0,2.0,95,0.00,,,0.00,Wunderground v.1.15,2013-06-17 11:14:00,
2013-06-17 07:15:00,64.3,62.8,29.88,West,271,1.0,2.0,95,0.00,,,0.00,Wunderground v.1.15,2013-06-17 11:15:00,
2013-06-17 07:17:00,64.5,63.0,29.88,West,277,0.0,2.0,95,0.00,,,0.00,Wunderground v.1.15,2013-06-17 11:17:00,
2013-06-17 07:19:00,64.6,63.1,29.88,WSW,255,0.0,2.0,95,0.00,,,0.00,Wunderground v.1.15,2013-06-17 11:19:00,
2013-06-17 07:20:00,64.6,63.1,29.88,WSW,255,0.0,0.0,95,0.00,,,0.00,Wunderground v.1.15,2013-06-17 11:20:00,
2013-06-17 07:22:00,64.7,62.9,29.88,WSW,252,0.0,0.0,94,0.00,,,0.00,Wunderground v.1.15,2013-06-17 11:22:00,
2013-06-17 07:24:00,64.8,63.0,29.88,WSW,238,1.0,1.0,94,0.00,,,0.00,Wunderground v.1.15,2013-06-17 11:24:00,
2013-06-17 07:25:00,64.8,63.0,29.88,SW,236,1.0,2.0,94,0.00,,,0.00,Wunderground v.1.15,2013-06-17 11:25:00,
2013-06-17 07:26:00,64.9,63.1,29.88,SW,236,1.0,2.0,94,0.00,,,0.00,Wunderground v.1.15,2013-06-17 11:26:00,
2013-06-17 07:27:00,64.9,63.1,29.88,WSW,255,2.0,2.0,94,0.00,,,0.00,Wunderground v.1.15,2013-06-17 11:27:00,
2013-06-17 07:29:00,64.9,63.1,29.88,WSW,248,0.0,2.0,94,0.00,,,0.00,Wunderground v.1.15,2013-06-17 11:29:00,
2013-06-17 07:30:00,64.8,63.0,29.88,WSW,245,1.0,1.0,94,0.00,,,0.00,Wunderground v.1.15,2013-06-17 11:30:00,
2013-06-17 07:31:00,64.9,63.1,29.88,WSW,249,0.0,1.0,94,0.00,,,0.00,Wunderground v.1.15,2013-06-17 11:31:00,
2013-06-17 07:33:00,64.9,63.1,29.88,WSW,248,0.0,1.0,94,0.00,,,0.00,Wunderground v.1.15,2013-06-17 11:33:00,
2013-06-17 07:35:00,64.9,63.1,29.88,WSW,248,0.0,2.0,94,0.00,,,0.00,Wunderground v.1.15,2013-06-17 11:35:00,
2013-06-17 07:36:00,65.0,63.2,29.88,West,264,1.0,2.0,94,0.00,,,0.00,Wunderground v.1.15,2013-06-17 11:36:00,
2013-06-17 07:38:00,65.0,62.9,29.89,WSW,257,2.0,2.0,93,0.00,,,0.00,Wunderground v.1.15,2013-06-17 11:38:00,
2013-06-17 07:40:00,65.0,62.9,29.89,WSW,257,1.0,1.0,93,0.00,,,0.00,Wunderground v.1.15,2013-06-17 11:40:00,
2013-06-17 07:41:00,65.1,63.0,29.89,WSW,250,1.0,2.0,93,0.00,,,0.00,Wunderground v.1.15,2013-06-17 11:41:00,
2013-06-17 07:44:00,65.1,63.0,29.89,WSW,243,1.0,2.0,93,0.00,,,0.00,Wunderground v.1.15,2013-06-17 11:44:00,
2013-06-17 07:45:00,65.1,63.0,29.89,WSW,245,1.0,2.0,93,0.00,,,0.00,Wunderground v.1.15,2013-06-17 11:45:00,
2013-06-17 07:46:00,65.1,63.0,29.89,WSW,245,0.0,2.0,93,0.00,,,0.00,Wunderground v.1.15,2013-06-17 11:46:00,
2013-06-17 07:50:00,65.1,63.0,29.89,WSW,248,2.0,2.0,93,0.00,,,0.00,Wunderground v.1.15,2013-06-17 11:50:00,
2013-06-17 07:51:00,65.1,63.0,29.89,West,259,0.0,2.0,93,0.00,,,0.00,Wunderground v.1.15,2013-06-17 11:51:00,
2013-06-17 07:55:00,65.2,63.1,29.89,West,264,0.0,2.0,93,0.00,,,0.00,Wunderground v.1.15,2013-06-17 11:55:00,
2013-06-17 07:56:00,65.2,63.1,29.89,West,264,1.0,2.0,93,0.00,,,0.00,Wunderground v.1.15,2013-06-17 11:56:00,
2013-06-17 08:00:00,65.3,63.2,29.90,WSW,253,0.0,0.0,93,0.00,,,0.00,Wunderground v.1.15,2013-06-17 12:00:00,
2013-06-17 08:01:00,65.4,63.3,29.89,WSW,255,0.0,1.0,93,0.00,,,0.00,Wunderground v.1.15,2013-06-17 12:01:00,
2013-06-17 08:02:00,65.4,63.3,29.89,WSW,253,0.0,1.0,93,0.00,,,0.00,Wunderground v.1.15,2013-06-17 12:02:00,
2013-06-17 08:05:00,65.7,63.6,29.89,WSW,257,0.0,1.0,93,0.00,,,0.00,Wunderground v.1.15,2013-06-17 12:05:00,
2013-06-17 08:06:00,65.7,63.6,29.89,WSW,257,0.0,1.0,93,0.00,,,0.00,Wunderground v.1.15,2013-06-17 12:06:00,
2013-06-17 08:07:00,65.9,63.8,29.89,SW,236,0.0,3.0,93,0.00,,,0.00,Wunderground v.1.15,2013-06-17 12:07:00,
2013-06-17 08:08:00,66.0,63.6,29.89,WSW,252,0.0,3.0,92,0.00,,,0.00,Wunderground v.1.15,2013-06-17 12:08:00,
2013-06-17 08:10:00,66.2,63.8,29.89,West,272,0.0,1.0,92,0.00,,,0.00,Wunderground v.1.15,2013-06-17 12:10:00,
2013-06-17 08:11:00,66.3,63.9,29.89,West,266,0.0,1.0,92,0.00,,,0.00,Wunderground v.1.15,2013-06-17 12:11:00,
2013-06-17 08:12:00,66.5,64.1,29.89,West,274,0.0,1.0,92,0.00,,,0.00,Wunderground v.1.15,2013-06-17 12:12:00,
2013-06-17 08:13:00,66.6,64.2,29.89,West,274,0.0,1.0,92,0.00,,,0.00,Wunderground v.1.15,2013-06-17 12:13:00,
2013-06-17 08:15:00,66.8,64.1,29.89,West,278,1.0,3.0,91,0.00,,,0.00,Wunderground v.1.15,2013-06-17 12:15:00,
2013-06-17 08:16:00,66.8,64.1,29.89,WSW,248,1.0,3.0,91,0.00,,,0.00,Wunderground v.1.15,2013-06-17 12:16:00,
2013-06-17 08:17:00,66.9,64.2,29.89,WSW,255,2.0,3.0,91,0.00,,,0.00,Wunderground v.1.15,2013-06-17 12:17:00,
2013-06-17 08:18:00,67.0,64.0,29.89,WSW,255,1.0,3.0,90,0.00,,,0.00,Wunderground v.1.15,2013-06-17 12:18:00,
2013-06-17 08:20:00,67.2,64.5,29.89,WSW,253,1.0,2.0,91,0.00,,,0.00,Wunderground v.1.15,2013-06-17 12:20:00,
2013-06-17 08:21:00,67.2,64.2,29.89,SW,226,0.0,2.0,90,0.00,,,0.00,Wunderground v.1.15,2013-06-17 12:21:00,
2013-06-17 08:22:00,67.2,64.2,29.89,SW,230,1.0,2.0,90,0.00,,,0.00,Wunderground v.1.15,2013-06-17 12:22:00,
2013-06-17 08:23:00,67.2,64.5,29.89,SW,235,1.0,2.0,91,0.00,,,0.00,Wunderground v.1.15,2013-06-17 12:23:00,
2013-06-17 08:25:00,67.1,64.4,29.89,WSW,238,0.0,2.0,91,0.00,,,0.00,Wunderground v.1.15,2013-06-17 12:25:00,
2013-06-17 08:26:00,67.1,64.4,29.90,WSW,250,1.0,2.0,91,0.00,,,0.00,Wunderground v.1.15,2013-06-17 12:26:00,
2013-06-17 08:27:00,67.1,64.4,29.90,WSW,251,0.0,2.0,91,0.00,,,0.00,Wunderground v.1.15,2013-06-17 12:27:00,
2013-06-17 08:29:00,67.1,64.4,29.90,West,271,0.0,2.0,91,0.00,,,0.00,Wunderground v.1.15,2013-06-17 12:29:00,
2013-06-17 08:30:00,67.2,64.5,29.90,SW,235,0.0,2.0,91,0.00,,,0.00,Wunderground v.1.15,2013-06-17 12:30:00,
2013-06-17 08:32:00,67.3,64.6,29.90,West,272,0.0,3.0,91,0.00,,,0.00,Wunderground v.1.15,2013-06-17 12:32:00,
2013-06-17 08:34:00,67.6,64.9,29.90,SW,231,0.0,3.0,91,0.00,,,0.00,Wunderground v.1.15,2013-06-17 12:34:00,
2013-06-17 08:36:00,67.7,64.7,29.90,WSW,246,1.0,3.0,90,0.00,,,0.00,Wunderground v.1.15,2013-06-17 12:36:00,
2013-06-17 08:37:00,67.7,65.0,29.90,WSW,238,0.0,3.0,91,0.00,,,0.00,Wunderground v.1.15,2013-06-17 12:37:00,
2013-06-17 08:38:00,67.7,64.7,29.90,SW,236,2.0,3.0,90,0.00,,,0.00,Wunderground v.1.15,2013-06-17 12:38:00,
2013-06-17 08:39:00,67.8,64.8,29.90,WSW,253,0.0,3.0,90,0.00,,,0.00,Wunderground v.1.15,2013-06-17 12:39:00,
2013-06-17 08:41:00,68.0,65.0,29.90,WSW,248,1.0,2.0,90,0.00,,,0.00,Wunderground v.1.15,2013-06-17 12:41:00,
2013-06-17 08:42:00,68.1,65.1,29.90,SW,218,0.0,2.0,90,0.00,,,0.00,Wunderground v.1.15,2013-06-17 12:42:00,
2013-06-17 08:43:00,68.2,65.2,29.89,SW,226,0.0,2.0,90,0.00,,,0.00,Wunderground v.1.15,2013-06-17 12:43:00,
2013-06-17 08:45:00,68.3,65.3,29.89,WSW,242,0.0,3.0,90,0.00,,,0.00,Wunderground v.1.15,2013-06-17 12:45:00,
2013-06-17 08:46:00,68.3,64.9,29.89,WSW,241,1.0,3.0,89,0.00,,,0.00,Wunderground v.1.15,2013-06-17 12:46:00,
2013-06-17 08:47:00,68.3,64.9,29.89,WSW,245,0.0,3.0,89,0.00,,,0.00,Wunderground v.1.15,2013-06-17 12:47:00,
2013-06-17 08:48:00,68.3,64.9,29.89,SW,232,1.0,3.0,89,0.00,,,0.00,Wunderground v.1.15,2013-06-17 12:48:00,
2013-06-17 08:50:00,68.2,64.8,29.89,WSW,239,1.0,2.0,89,0.00,,,0.00,Wunderground v.1.15,2013-06-17 12:50:00,
2013-06-17 08:51:00,68.2,64.8,29.89,WSW,242,1.0,3.0,89,0.00,,,0.00,Wunderground v.1.15,2013-06-17 12:51:00,
2013-06-17 08:52:00,68.2,64.8,29.89,WSW,239,1.0,3.0,89,0.00,,,0.00,Wunderground v.1.15,2013-06-17 12:52:00,
2013-06-17 08:53:00,68.1,64.7,29.89,WSW,245,2.0,3.0,89,0.00,,,0.00,Wunderground v.1.15,2013-06-17 12:53:00,
2013-06-17 08:55:00,68.1,64.7,29.89,WSW,241,1.0,3.0,89,0.00,,,0.00,Wunderground v.1.15,2013-06-17 12:55:00,
2013-06-17 08:56:00,68.0,64.6,29.89,SSW,204,1.0,3.0,89,0.00,,,0.00,Wunderground v.1.15,2013-06-17 12:56:00,
2013-06-17 08:57:00,67.9,64.5,29.89,SW,221,2.0,3.0,89,0.00,,,0.00,Wunderground v.1.15,2013-06-17 12:57:00,
2013-06-17 08:58:00,67.9,64.5,29.89,SW,232,1.0,3.0,89,0.00,,,0.00,Wunderground v.1.15,2013-06-17 12:58:00,
2013-06-17 09:00:00,67.8,64.8,29.89,SW,225,0.0,1.0,90,0.00,,,0.00,Wunderground v.1.15,2013-06-17 13:00:00,
2013-06-17 09:01:00,67.7,64.7,29.89,SW,225,0.0,2.0,90,0.00,,,0.00,Wunderground v.1.15,2013-06-17 13:01:00,
2013-06-17 09:03:00,67.6,64.6,29.89,WSW,242,2.0,2.0,90,0.00,,,0.00,Wunderground v.1.15,2013-06-17 13:03:00,
2013-06-17 09:05:00,67.5,64.5,29.89,WSW,239,1.0,3.0,90,0.00,,,0.00,Wunderground v.1.15,2013-06-17 13:05:00,
2013-06-17 09:07:00,67.4,64.4,29.89,WSW,252,0.0,3.0,90,0.00,,,0.00,Wunderground v.1.15,2013-06-17 13:07:00,
2013-06-17 09:08:00,67.4,64.4,29.89,West,280,0.0,3.0,90,0.00,,,0.00,Wunderground v.1.15,2013-06-17 13:08:00,
2013-06-17 09:09:00,67.5,64.8,29.89,West,259,0.0,3.0,91,0.00,,,0.00,Wunderground v.1.15,2013-06-17 13:09:00,
2013-06-17 09:10:00,67.6,64.9,29.89,West,264,1.0,1.0,91,0.00,,,0.00,Wunderground v.1.15,2013-06-17 13:10:00,
2013-06-17 09:12:00,67.9,64.9,29.89,WSW,249,0.0,3.0,90,0.00,,,0.00,Wunderground v.1.15,2013-06-17 13:12:00,
2013-06-17 09:13:00,68.1,65.1,29.89,WNW,288,1.0,3.0,90,0.00,,,0.00,Wunderground v.1.15,2013-06-17 13:13:00,
2013-06-17 09:14:00,68.3,64.9,29.89,West,280,2.0,3.0,89,0.00,,,0.00,Wunderground v.1.15,2013-06-17 13:14:00,
2013-06-17 09:15:00,68.5,65.1,29.89,West,259,1.0,3.0,89,0.00,,,0.00,Wunderground v.1.15,2013-06-17 13:15:00,
2013-06-17 09:17:00,69.0,65.3,29.89,West,276,1.0,3.0,88,0.00,,,0.00,Wunderground v.1.15,2013-06-17 13:17:00,
2013-06-17 09:18:00,69.3,65.3,29.89,West,270,1.0,3.0,87,0.00,,,0.00,Wunderground v.1.15,2013-06-17 13:18:00,
2013-06-17 09:19:00,69.3,65.3,29.89,WNW,293,2.0,3.0,87,0.00,,,0.00,Wunderground v.1.15,2013-06-17 13:19:00,
2013-06-17 09:20:00,69.7,65.3,29.89,WNW,294,1.0,2.0,86,0.00,,,0.00,Wunderground v.1.15,2013-06-17 13:20:00,
2013-06-17 09:22:00,70.1,65.7,29.89,WNW,290,1.0,2.0,86,0.00,,,0.00,Wunderground v.1.15,2013-06-17 13:22:00,
2013-06-17 09:23:00,70.3,65.6,29.89,West,276,1.0,2.0,85,0.00,,,0.00,Wunderground v.1.15,2013-06-17 13:23:00,
2013-06-17 09:24:00,70.4,65.7,29.89,West,264,1.0,2.0,85,0.00,,,0.00,Wunderground v.1.15,2013-06-17 13:24:00,
2013-06-17 09:25:00,70.6,65.5,29.89,WNW,285,2.0,2.0,84,0.00,,,0.00,Wunderground v.1.15,2013-06-17 13:25:00,
2013-06-17 09:28:00,71.0,65.2,29.89,WNW,283,4.0,5.0,82,0.00,,,0.00,Wunderground v.1.15,2013-06-17 13:28:00,
2013-06-17 09:29:00,71.1,65.3,29.89,NW,305,4.0,5.0,82,0.00,,,0.00,Wunderground v.1.15,2013-06-17 13:29:00,
2013-06-17 09:30:00,71.3,65.2,29.89,WNW,288,3.0,4.0,81,0.00,,,0.00,Wunderground v.1.15,2013-06-17 13:30:00,
2013-06-17 09:33:00,71.5,65.0,29.88,WNW,284,2.0,4.0,80,0.00,,,0.00,Wunderground v.1.15,2013-06-17 13:33:00,
2013-06-17 09:34:00,71.5,65.0,29.88,WNW,293,2.0,4.0,80,0.00,,,0.00,Wunderground v.1.15,2013-06-17 13:34:00,
2013-06-17 09:35:00,71.5,65.0,29.88,West,276,1.0,4.0,80,0.00,,,0.00,Wunderground v.1.15,2013-06-17 13:35:00,
2013-06-17 09:36:00,71.5,65.4,29.88,West,260,1.0,4.0,81,0.00,,,0.00,Wunderground v.1.15,2013-06-17 13:36:00,
2013-06-17 09:38:00,71.8,65.7,29.89,WNW,284,4.0,4.0,81,0.00,,,0.00,Wunderground v.1.15,2013-06-17 13:38:00,
2013-06-17 09:39:00,71.9,65.8,29.89,WNW,284,1.0,4.0,81,0.00,,,0.00,Wunderground v.1.15,2013-06-17 13:39:00,
2013-06-17 09:40:00,72.0,65.8,29.89,West,278,1.0,2.0,81,0.00,,,0.00,Wunderground v.1.15,2013-06-17 13:40:00,
2013-06-17 09:41:00,72.2,66.4,29.89,WSW,255,1.0,2.0,82,0.00,,,0.00,Wunderground v.1.15,2013-06-17 13:41:00,
2013-06-17 09:44:00,72.6,66.4,29.89,SW,232,2.0,4.0,81,0.00,,,0.00,Wunderground v.1.15,2013-06-17 13:44:00,
2013-06-17 09:45:00,72.6,66.4,29.89,SW,229,2.0,4.0,81,0.00,,,0.00,Wunderground v.1.15,2013-06-17 13:45:00,
2013-06-17 09:46:00,72.6,66.4,29.89,SW,236,0.0,4.0,81,0.00,,,0.00,Wunderground v.1.15,2013-06-17 13:46:00,
2013-06-17 09:49:00,72.4,66.2,29.89,SW,214,3.0,6.0,81,0.00,,,0.00,Wunderground v.1.15,2013-06-17 13:49:00,
2013-06-17 09:50:00,72.3,66.1,29.89,SW,222,3.0,4.0,81,0.00,,,0.00,Wunderground v.1.15,2013-06-17 13:50:00,
2013-06-17 09:51:00,72.0,66.2,29.89,SW,229,2.0,4.0,82,0.00,,,0.00,Wunderground v.1.15,2013-06-17 13:51:00,
2013-06-17 09:54:00,71.5,66.1,29.89,WSW,253,2.0,7.0,83,0.00,,,0.00,Wunderground v.1.15,2013-06-17 13:54:00,
2013-06-17 09:55:00,71.4,66.0,29.89,WSW,243,2.0,7.0,83,0.00,,,0.00,Wunderground v.1.15,2013-06-17 13:55:00,
2013-06-17 09:56:00,71.1,65.7,29.89,SW,232,2.0,7.0,83,0.00,,,0.00,Wunderground v.1.15,2013-06-17 13:56:00,
2013-06-17 09:59:00,70.6,65.5,29.89,SW,236,2.0,7.0,84,0.00,,,0.00,Wunderground v.1.15,2013-06-17 13:59:00,
2013-06-17 10:00:00,70.5,65.4,29.89,WSW,250,2.0,3.0,84,0.00,,,0.00,Wunderground v.1.15,2013-06-17 14:00:00,
2013-06-17 10:01:00,70.2,65.1,29.89,SW,232,2.0,3.0,84,0.00,,,0.00,Wunderground v.1.15,2013-06-17 14:01:00,
2013-06-17 10:04:00,70.0,65.3,29.89,WSW,246,2.0,3.0,85,0.00,,,0.00,Wunderground v.1.15,2013-06-17 14:04:00,
2013-06-17 10:05:00,70.0,65.3,29.89,SW,235,3.0,3.0,85,0.00,,,0.00,Wunderground v.1.15,2013-06-17 14:05:00,
2013-06-17 10:06:00,70.0,65.3,29.89,West,263,1.0,3.0,85,0.00,,,0.00,Wunderground v.1.15,2013-06-17 14:06:00,
2013-06-17 10:07:00,69.9,65.2,29.89,SW,233,3.0,4.0,85,0.00,,,0.00,Wunderground v.1.15,2013-06-17 14:07:00,
2013-06-17 10:10:00,69.9,65.5,29.89,SW,236,2.0,3.0,86,0.00,,,0.00,Wunderground v.1.15,2013-06-17 14:10:00,
2013-06-17 10:11:00,69.9,65.5,29.89,WSW,248,2.0,4.0,86,0.00,,,0.00,Wunderground v.1.15,2013-06-17 14:11:00,
2013-06-17 10:12:00,69.9,65.5,29.89,WSW,248,2.0,5.0,86,0.00,,,0.00,Wunderground v.1.15,2013-06-17 14:12:00,
2013-06-17 10:15:00,70.1,66.0,29.89,SW,218,2.0,5.0,87,0.00,,,0.00,Wunderground v.1.15,2013-06-17 14:15:00,
2013-06-17 10:16:00,70.1,66.0,29.89,SW,229,2.0,5.0,87,0.00,,,0.00,Wunderground v.1.15,2013-06-17 14:16:00,
2013-06-17 10:17:00,70.1,65.7,29.89,SW,229,4.0,5.0,86,0.00,,,0.00,Wunderground v.1.15,2013-06-17 14:17:00,
2013-06-17 10:20:00,70.2,65.8,29.89,WSW,239,2.0,2.0,86,0.00,,,0.00,Wunderground v.1.15,2013-06-17 14:20:00,
2013-06-17 10:21:00,70.1,65.7,29.89,WSW,241,2.0,3.0,86,0.00,,,0.00,Wunderground v.1.15,2013-06-17 14:21:00,
2013-06-17 10:22:00,70.1,65.7,29.89,WSW,245,1.0,4.0,86,0.00,,,0.00,Wunderground v.1.15,2013-06-17 14:22:00,
2013-06-17 10:25:00,70.1,65.7,29.89,SW,236,2.0,4.0,86,0.00,,,0.00,Wunderground v.1.15,2013-06-17 14:25:00,
2013-06-17 10:26:00,70.1,65.7,29.89,SW,232,2.0,4.0,86,0.00,,,0.00,Wunderground v.1.15,2013-06-17 14:26:00,
2013-06-17 10:27:00,70.2,65.8,29.89,SW,229,2.0,4.0,86,0.00,,,0.00,Wunderground v.1.15,2013-06-17 14:27:00,
2013-06-17 10:30:00,70.2,65.8,29.89,SW,235,3.0,3.0,86,0.00,,,0.00,Wunderground v.1.15,2013-06-17 14:30:00,
2013-06-17 10:31:00,70.2,65.8,29.89,WSW,246,2.0,4.0,86,0.00,,,0.00,Wunderground v.1.15,2013-06-17 14:31:00,
2013-06-17 10:32:00,70.3,65.9,29.89,WSW,250,1.0,4.0,86,0.00,,,0.00,Wunderground v.1.15,2013-06-17 14:32:00,
2013-06-17 10:33:00,70.3,65.9,29.89,SW,225,3.0,4.0,86,0.00,,,0.00,Wunderground v.1.15,2013-06-17 14:33:00,
2013-06-17 10:35:00,70.4,66.0,29.89,SW,232,3.0,5.0,86,0.00,,,0.00,Wunderground v.1.15,2013-06-17 14:35:00,
2013-06-17 10:36:00,70.4,66.0,29.89,WSW,239,3.0,5.0,86,0.00,,,0.00,Wunderground v.1.15,2013-06-17 14:36:00,
2013-06-17 10:37:00,70.4,66.0,29.89,WSW,253,2.0,5.0,86,0.00,,,0.00,Wunderground v.1.15,2013-06-17 14:37:00,
2013-06-17 10:38:00,70.4,66.0,29.89,WSW,238,2.0,5.0,86,0.00,,,0.00,Wunderground v.1.15,2013-06-17 14:38:00,
2013-06-17 10:40:00,70.2,65.5,29.89,WSW,249,1.0,3.0,85,0.00,,,0.00,Wunderground v.1.15,2013-06-17 14:40:00,
2013-06-17 10:41:00,70.2,65.5,29.89,West,259,1.0,3.0,85,0.00,,,0.00,Wunderground v.1.15,2013-06-17 14:41:00,
2013-06-17 10:42:00,70.2,65.8,29.89,West,261,0.0,3.0,86,0.00,,,0.00,Wunderground v.1.15,2013-06-17 14:42:00,
2013-06-17 10:43:00,70.2,65.8,29.89,WSW,255,2.0,3.0,86,0.00,,,0.00,Wunderground v.1.15,2013-06-17 14:43:00,
2013-06-17 10:46:00,70.3,65.9,29.89,WSW,248,1.0,3.0,86,0.00,,,0.00,Wunderground v.1.15,2013-06-17 14:46:00,
2013-06-17 10:47:00,70.3,65.6,29.89,West,262,1.0,3.0,85,0.00,,,0.00,Wunderground v.1.15,2013-06-17 14:47:00,
2013-06-17 10:48:00,70.3,65.6,29.89,WSW,253,1.0,3.0,85,0.00,,,0.00,Wunderground v.1.15,2013-06-17 14:48:00,
2013-06-17 10:49:00,70.3,65.9,29.89,SW,236,2.0,3.0,86,0.00,,,0.00,Wunderground v.1.15,2013-06-17 14:49:00,
2013-06-17 10:51:00,70.6,66.5,29.89,WSW,248,1.0,3.0,87,0.00,,,0.00,Wunderground v.1.15,2013-06-17 14:51:00,
2013-06-17 10:52:00,70.7,66.3,29.89,WSW,245,3.0,3.0,86,0.00,,,0.00,Wunderground v.1.15,2013-06-17 14:52:00,
2013-06-17 10:53:00,70.7,66.3,29.89,SW,232,1.0,3.0,86,0.00,,,0.00,Wunderground v.1.15,2013-06-17 14:53:00,
2013-06-17 10:54:00,70.8,66.1,29.89,SW,236,2.0,3.0,85,0.00,,,0.00,Wunderground v.1.15,2013-06-17 14:54:00,
2013-06-17 10:56:00,70.9,66.2,29.89,WSW,245,3.0,3.0,85,0.00,,,0.00,Wunderground v.1.15,2013-06-17 14:56:00,
2013-06-17 10:57:00,70.9,66.2,29.89,SW,214,1.0,3.0,85,0.00,,,0.00,Wunderground v.1.15,2013-06-17 14:57:00,
2013-06-17 10:58:00,71.0,66.3,29.89,SW,229,2.0,3.0,85,0.00,,,0.00,Wunderground v.1.15,2013-06-17 14:58:00,
2013-06-17 10:59:00,71.1,66.4,29.89,WSW,248,2.0,3.0,85,0.00,,,0.00,Wunderground v.1.15,2013-06-17 14:59:00,
2013-06-17 11:01:00,71.4,66.7,29.89,WSW,250,2.0,2.0,85,0.00,,,0.00,Wunderground v.1.15,2013-06-17 15:01:00,
2013-06-17 11:02:00,71.4,66.7,29.89,SW,229,2.0,3.0,85,0.00,,,0.00,Wunderground v.1.15,2013-06-17 15:02:00,
2013-06-17 11:03:00,71.6,66.8,29.89,WSW,239,2.0,3.0,85,0.00,,,0.00,Wunderground v.1.15,2013-06-17 15:03:00,
2013-06-17 11:04:00,71.6,66.5,29.89,SW,236,2.0,4.0,84,0.00,,,0.00,Wunderground v.1.15,2013-06-17 15:04:00,
2013-06-17 11:06:00,71.6,66.2,29.89,WSW,249,3.0,4.0,83,0.00,,,0.00,Wunderground v.1.15,2013-06-17 15:06:00,
2013-06-17 11:07:00,71.5,66.4,29.89,WSW,255,2.0,4.0,84,0.00,,,0.00,Wunderground v.1.15,2013-06-17 15:07:00,
2013-06-17 11:08:00,71.5,66.4,29.89,WSW,245,2.0,4.0,84,0.00,,,0.00,Wunderground v.1.15,2013-06-17 15:08:00,
2013-06-17 11:09:00,71.5,66.8,29.89,WSW,249,2.0,4.0,85,0.00,,,0.00,Wunderground v.1.15,2013-06-17 15:09:00,
2013-06-17 11:12:00,71.4,66.7,29.89,SW,224,2.0,5.0,85,0.00,,,0.00,Wunderground v.1.15,2013-06-17 15:12:00,
2013-06-17 11:13:00,71.5,66.8,29.89,SW,214,2.0,5.0,85,0.00,,,0.00,Wunderground v.1.15,2013-06-17 15:13:00,
2013-06-17 11:15:00,71.5,66.8,29.89,SW,229,1.0,5.0,85,0.00,,,0.00,Wunderground v.1.15,2013-06-17 15:15:00,
2013-06-17 11:17:00,71.6,66.5,29.89,SW,224,4.0,5.0,84,0.00,,,0.00,Wunderground v.1.15,2013-06-17 15:17:00,
2013-06-17 11:18:00,71.6,66.5,29.89,WSW,250,2.0,5.0,84,0.00,,,0.00,Wunderground v.1.15,2013-06-17 15:18:00,
2013-06-17 11:20:00,71.4,66.3,29.89,WSW,256,3.0,3.0,84,0.00,,,0.00,Wunderground v.1.15,2013-06-17 15:20:00,
2013-06-17 11:22:00,71.3,66.6,29.89,WSW,253,2.0,4.0,85,0.00,,,0.00,Wunderground v.1.15,2013-06-17 15:22:00,
2013-06-17 11:23:00,71.4,66.7,29.89,WSW,245,3.0,4.0,85,0.00,,,0.00,Wunderground v.1.15,2013-06-17 15:23:00,
2013-06-17 11:24:00,71.3,66.6,29.89,WSW,249,4.0,4.0,85,0.00,,,0.00,Wunderground v.1.15,2013-06-17 15:24:00,
2013-06-17 11:25:00,71.3,66.6,29.89,West,259,3.0,4.0,85,0.00,,,0.00,Wunderground v.1.15,2013-06-17 15:25:00,
2013-06-17 11:27:00,71.4,66.7,29.89,WSW,249,3.0,4.0,85,0.00,,,0.00,Wunderground v.1.15,2013-06-17 15:27:00,
2013-06-17 11:28:00,71.4,66.7,29.89,WSW,246,0.0,4.0,85,0.00,,,0.00,Wunderground v.1.15,2013-06-17 15:28:00,
2013-06-17 11:30:00,71.4,66.3,29.89,WSW,242,2.0,2.0,84,0.00,,,0.00,Wunderground v.1.15,2013-06-17 15:30:00,
2013-06-17 11:32:00,71.5,66.8,29.88,WSW,242,3.0,5.0,85,0.00,,,0.00,Wunderground v.1.15,2013-06-17 15:32:00,
2013-06-17 11:33:00,71.5,66.8,29.89,SW,236,2.0,5.0,85,0.00,,,0.00,Wunderground v.1.15,2013-06-17 15:33:00,
2013-06-17 11:35:00,71.7,66.9,29.88,SW,226,4.0,5.0,85,0.00,,,0.00,Wunderground v.1.15,2013-06-17 15:35:00,
2013-06-17 11:37:00,71.7,66.6,29.88,SW,226,2.0,5.0,84,0.00,,,0.00,Wunderground v.1.15,2013-06-17 15:37:00,
2013-06-17 11:38:00,71.6,66.5,29.88,SW,222,2.0,5.0,84,0.00,,,0.00,Wunderground v.1.15,2013-06-17 15:38:00,
2013-06-17 11:40:00,71.6,66.5,29.88,SSW,211,3.0,3.0,84,0.00,,,0.00,Wunderground v.1.15,2013-06-17 15:40:00,
2013-06-17 11:42:00,71.8,67.4,29.88,WSW,250,3.0,4.0,86,0.00,,,0.00,Wunderground v.1.15,2013-06-17 15:42:00,
2013-06-17 11:43:00,71.8,66.7,29.88,SSW,210,2.0,4.0,84,0.00,,,0.00,Wunderground v.1.15,2013-06-17 15:43:00,
2013-06-17 11:45:00,71.8,66.7,29.88,WSW,248,3.0,5.0,84,0.00,,,0.00,Wunderground v.1.15,2013-06-17 15:45:00,
2013-06-17 11:46:00,71.8,66.7,29.88,WSW,248,3.0,5.0,84,0.00,,,0.00,Wunderground v.1.15,2013-06-17 15:46:00,
2013-06-17 11:47:00,71.7,66.3,29.88,WNW,295,2.0,5.0,83,0.00,,,0.00,Wunderground v.1.15,2013-06-17 15:47:00,
2013-06-17 11:48:00,71.6,66.5,29.88,SW,229,3.0,5.0,84,0.00,,,0.00,Wunderground v.1.15,2013-06-17 15:48:00,
2013-06-17 11:50:00,71.6,66.8,29.88,SW,219,3.0,4.0,85,0.00,,,0.00,Wunderground v.1.15,2013-06-17 15:50:00,
2013-06-17 11:51:00,71.6,66.8,29.88,SW,224,4.0,4.0,85,0.00,,,0.00,Wunderground v.1.15,2013-06-17 15:51:00,
2013-06-17 11:52:00,71.7,66.9,29.88,SW,218,3.0,4.0,85,0.00,,,0.00,Wunderground v.1.15,2013-06-17 15:52:00,
2013-06-17 11:53:00,71.7,66.6,29.88,WSW,246,1.0,4.0,84,0.00,,,0.00,Wunderground v.1.15,2013-06-17 15:53:00,
2013-06-17 11:54:00,71.8,66.7,29.88,WSW,241,3.0,4.0,84,0.00,,,0.00,Wunderground v.1.15,2013-06-17 15:54:00,
2013-06-17 11:56:00,71.9,66.8,29.88,WSW,239,1.0,4.0,84,0.00,,,0.00,Wunderground v.1.15,2013-06-17 15:56:00,
2013-06-17 11:57:00,71.9,67.1,29.88,WSW,238,3.0,4.0,85,0.00,,,0.00,Wunderground v.1.15,2013-06-17 15:57:00,
2013-06-17 11:58:00,72.0,67.2,29.88,WSW,253,1.0,4.0,85,0.00,,,0.00,Wunderground v.1.15,2013-06-17 15:58:00,
2013-06-17 11:59:00,72.0,66.9,29.88,WSW,243,3.0,5.0,84,0.00,,,0.00,Wunderground v.1.15,2013-06-17 15:59:00,
2013-06-17 12:01:00,71.9,66.5,29.88,SW,235,3.0,4.0,83,0.00,,,0.00,Wunderground v.1.15,2013-06-17 16:01:00,
2013-06-17 12:02:00,71.8,66.4,29.88,SW,214,2.0,4.0,83,0.00,,,0.00,Wunderground v.1.15,2013-06-17 16:02:00,
2013-06-17 12:03:00,71.8,66.7,29.88,WSW,240,3.0,4.0,84,0.00,,,0.00,Wunderground v.1.15,2013-06-17 16:03:00,
2013-06-17 12:04:00,71.7,66.6,29.88,West,270,1.0,4.0,84,0.00,,,0.00,Wunderground v.1.15,2013-06-17 16:04:00,
2013-06-17 12:06:00,71.8,67.0,29.88,SW,235,2.0,4.0,85,0.00,,,0.00,Wunderground v.1.15,2013-06-17 16:06:00,
2013-06-17 12:08:00,72.1,67.7,29.88,SW,235,2.0,4.0,86,0.00,,,0.00,Wunderground v.1.15,2013-06-17 16:08:00,
2013-06-17 12:09:00,72.2,67.1,29.88,WSW,250,3.0,3.0,84,0.00,,,0.00,Wunderground v.1.15,2013-06-17 16:09:00,
2013-06-17 12:11:00,72.1,67.0,29.88,WSW,249,3.0,5.0,84,0.00,,,0.00,Wunderground v.1.15,2013-06-17 16:11:00,
2013-06-17 12:13:00,72.1,67.0,29.88,West,262,3.0,5.0,84,0.00,,,0.00,Wunderground v.1.15,2013-06-17 16:13:00,
2013-06-17 12:14:00,72.1,67.0,29.88,WSW,248,2.0,5.0,84,0.00,,,0.00,Wunderground v.1.15,2013-06-17 16:14:00,
2013-06-17 12:17:00,72.1,67.0,29.88,West,260,2.0,5.0,84,0.00,,,0.00,Wunderground v.1.15,2013-06-17 16:17:00,
2013-06-17 12:18:00,72.2,67.1,29.88,West,263,3.0,5.0,84,0.00,,,0.00,Wunderground v.1.15,2013-06-17 16:18:00,
2013-06-17 12:19:00,72.2,67.1,29.88,West,260,2.0,5.0,84,0.00,,,0.00,Wunderground v.1.15,2013-06-17 16:19:00,
2013-06-17 12:22:00,72.5,67.7,29.88,West,259,3.0,4.0,85,0.00,,,0.00,Wunderground v.1.15,2013-06-17 16:22:00,
2013-06-17 12:23:00,72.5,67.0,29.88,WSW,239,4.0,4.0,83,0.00,,,0.00,Wunderground v.1.15,2013-06-17 16:23:00,
2013-06-17 12:24:00,72.5,67.0,29.88,WSW,252,3.0,4.0,83,0.00,,,0.00,Wunderground v.1.15,2013-06-17 16:24:00,
2013-06-17 12:25:00,72.6,67.8,29.88,WSW,256,3.0,4.0,85,0.00,,,0.00,Wunderground v.1.15,2013-06-17 16:25:00,
2013-06-17 12:27:00,72.8,67.3,29.88,WSW,253,1.0,4.0,83,0.00,,,0.00,Wunderground v.1.15,2013-06-17 16:27:00,
2013-06-17 12:29:00,72.9,67.1,29.88,WSW,253,3.0,4.0,82,0.00,,,0.00,Wunderground v.1.15,2013-06-17 16:29:00,
2013-06-17 12:30:00,72.9,67.1,29.88,West,273,3.0,4.0,82,0.00,,,0.00,Wunderground v.1.15,2013-06-17 16:30:00,
2013-06-17 12:32:00,72.8,67.0,29.88,WSW,257,2.0,5.0,82,0.00,,,0.00,Wunderground v.1.15,2013-06-17 16:32:00,
2013-06-17 12:34:00,72.8,67.0,29.88,WSW,250,3.0,5.0,82,0.00,,,0.00,Wunderground v.1.15,2013-06-17 16:34:00,
2013-06-17 12:35:00,72.9,67.1,29.88,WSW,252,2.0,5.0,82,0.00,,,0.00,Wunderground v.1.15,2013-06-17 16:35:00,
2013-06-17 12:37:00,73.1,67.3,29.88,WSW,249,2.0,5.0,82,0.00,,,0.00,Wunderground v.1.15,2013-06-17 16:37:00,
2013-06-17 12:39:00,73.1,66.9,29.88,West,276,3.0,5.0,81,0.00,,,0.00,Wunderground v.1.15,2013-06-17 16:39:00,
2013-06-17 12:40:00,73.1,67.3,29.88,WSW,255,4.0,4.0,82,0.00,,,0.00,Wunderground v.1.15,2013-06-17 16:40:00,
2013-06-17 12:42:00,73.2,66.7,29.88,WSW,240,3.0,5.0,80,0.00,,,0.00,Wunderground v.1.15,2013-06-17 16:42:00,
2013-06-17 12:44:00,73.3,67.5,29.88,WSW,238,4.0,5.0,82,0.00,,,0.00,Wunderground v.1.15,2013-06-17 16:44:00,
2013-06-17 12:45:00,73.4,67.2,29.88,SW,231,2.0,5.0,81,0.00,,,0.00,Wunderground v.1.15,2013-06-17 16:45:00,
2013-06-17 12:48:00,73.6,67.4,29.88,West,277,2.0,5.0,81,0.00,,,0.00,Wunderground v.1.15,2013-06-17 16:48:00,
2013-06-17 12:49:00,73.6,67.0,29.88,WSW,250,3.0,5.0,80,0.00,,,0.00,Wunderground v.1.15,2013-06-17 16:49:00,
2013-06-17 12:50:00,73.6,67.0,29.88,WSW,250,2.0,4.0,80,0.00,,,0.00,Wunderground v.1.15,2013-06-17 16:50:00,
2013-06-17 12:53:00,73.4,66.9,29.88,WSW,249,3.0,5.0,80,0.00,,,0.00,Wunderground v.1.15,2013-06-17 16:53:00,
2013-06-17 12:54:00,73.5,67.3,29.87,SW,233,1.0,5.0,81,0.00,,,0.00,Wunderground v.1.15,2013-06-17 16:54:00,
2013-06-17 12:55:00,73.5,67.3,29.87,WSW,250,3.0,5.0,81,0.00,,,0.00,Wunderground v.1.15,2013-06-17 16:55:00,
2013-06-17 12:58:00,73.6,67.4,29.88,West,259,2.0,6.0,81,0.00,,,0.00,Wunderground v.1.15,2013-06-17 16:58:00,
2013-06-17 12:59:00,73.6,67.4,29.88,SW,231,5.0,6.0,81,0.00,,,0.00,Wunderground v.1.15,2013-06-17 16:59:00,
2013-06-17 13:00:00,73.6,67.4,29.88,WSW,242,2.0,5.0,81,0.00,,,0.00,Wunderground v.1.15,2013-06-17 17:00:00,
2013-06-17 13:01:00,73.6,67.4,29.88,WSW,242,4.0,5.0,81,0.00,,,0.00,Wunderground v.1.15,2013-06-17 17:01:00,
2013-06-17 13:03:00,73.5,67.3,29.88,WSW,239,2.0,5.0,81,0.00,,,0.00,Wunderground v.1.15,2013-06-17 17:03:00,
2013-06-17 13:05:00,73.5,67.3,29.88,West,271,3.0,6.0,81,0.00,,,0.00,Wunderground v.1.15,2013-06-17 17:05:00,
2013-06-17 13:06:00,73.4,67.2,29.88,WSW,253,2.0,6.0,81,0.00,,,0.00,Wunderground v.1.15,2013-06-17 17:06:00,
2013-06-17 13:09:00,73.7,67.9,29.88,WNW,285,2.0,6.0,82,0.00,,,0.00,Wunderground v.1.15,2013-06-17 17:09:00,
2013-06-17 13:10:00,73.7,67.9,29.88,West,273,4.0,5.0,82,0.00,,,0.00,Wunderground v.1.15,2013-06-17 17:10:00,
2013-06-17 13:11:00,73.7,67.9,29.88,SW,235,2.0,5.0,82,0.00,,,0.00,Wunderground v.1.15,2013-06-17 17:11:00,
2013-06-17 13:14:00,73.7,67.5,29.88,SW,232,2.0,6.0,81,0.00,,,0.00,Wunderground v.1.15,2013-06-17 17:14:00,
2013-06-17 13:15:00,73.7,67.5,29.88,South,190,2.0,6.0,81,0.00,,,0.00,Wunderground v.1.15,2013-06-17 17:15:00,
2013-06-17 13:16:00,73.8,67.6,29.88,WSW,250,3.0,6.0,81,0.00,,,0.00,Wunderground v.1.15,2013-06-17 17:16:00,
2013-06-17 13:17:00,73.8,67.6,29.88,West,259,3.0,6.0,81,0.00,,,0.00,Wunderground v.1.15,2013-06-17 17:17:00,
2013-06-17 13:19:00,73.9,67.7,29.88,SW,235,5.0,6.0,81,0.00,,,0.00,Wunderground v.1.15,2013-06-17 17:19:00,
2013-06-17 13:20:00,73.9,67.7,29.88,West,260,2.0,5.0,81,0.00,,,0.00,Wunderground v.1.15,2013-06-17 17:20:00,
2013-06-17 13:22:00,73.9,67.3,29.88,WSW,242,1.0,5.0,80,0.00,,,0.00,Wunderground v.1.15,2013-06-17 17:22:00,
2013-06-17 13:24:00,74.1,68.3,29.88,WSW,253,3.0,5.0,82,0.00,,,0.00,Wunderground v.1.15,2013-06-17 17:24:00,
2013-06-17 13:25:00,74.2,67.6,29.88,SW,225,3.0,5.0,80,0.00,,,0.00,Wunderground v.1.15,2013-06-17 17:25:00,
2013-06-17 13:27:00,74.2,67.6,29.88,West,260,3.0,8.0,80,0.00,,,0.00,Wunderground v.1.15,2013-06-17 17:27:00,
2013-06-17 13:29:00,74.2,67.6,29.88,SW,224,2.0,8.0,80,0.00,,,0.00,Wunderground v.1.15,2013-06-17 17:29:00,
2013-06-17 13:30:00,74.2,67.6,29.88,SW,221,3.0,5.0,80,0.00,,,0.00,Wunderground v.1.15,2013-06-17 17:30:00,
2013-06-17 13:32:00,74.3,67.7,29.88,WSW,256,2.0,5.0,80,0.00,,,0.00,Wunderground v.1.15,2013-06-17 17:32:00,
2013-06-17 13:34:00,74.2,67.3,29.88,WSW,245,4.0,6.0,79,0.00,,,0.00,Wunderground v.1.15,2013-06-17 17:34:00,
2013-06-17 13:35:00,74.2,68.0,29.88,WSW,249,2.0,6.0,81,0.00,,,0.00,Wunderground v.1.15,2013-06-17 17:35:00,
2013-06-17 13:36:00,74.1,67.2,29.88,West,264,3.0,6.0,79,0.00,,,0.00,Wunderground v.1.15,2013-06-17 17:36:00,
2013-06-17 13:37:00,74.1,67.5,29.88,SW,233,4.0,6.0,80,0.00,,,0.00,Wunderground v.1.15,2013-06-17 17:37:00,
2013-06-17 13:40:00,73.8,67.2,29.88,WSW,239,2.0,3.0,80,0.00,,,0.00,Wunderground v.1.15,2013-06-17 17:40:00,
2013-06-17 13:41:00,73.6,67.0,29.88,WNW,287,2.0,5.0,80,0.00,,,0.00,Wunderground v.1.15,2013-06-17 17:41:00,
2013-06-17 13:42:00,73.6,67.0,29.88,WSW,245,4.0,5.0,80,0.00,,,0.00,Wunderground v.1.15,2013-06-17 17:42:00,
2013-06-17 13:45:00,73.5,67.3,29.87,WSW,240,4.0,6.0,81,0.00,,,0.00,Wunderground v.1.15,2013-06-17 17:45:00,
2013-06-17 13:46:00,73.5,67.3,29.88,WSW,252,3.0,6.0,81,0.00,,,0.00,Wunderground v.1.15,2013-06-17 17:46:00,
2013-06-17 13:47:00,73.6,67.4,29.88,SW,233,3.0,6.0,81,0.00,,,0.00,Wunderground v.1.15,2013-06-17 17:47:00,
2013-06-17 13:50:00,73.6,67.4,29.88,West,271,2.0,5.0,81,0.00,,,0.00,Wunderground v.1.15,2013-06-17 17:50:00,
2013-06-17 13:51:00,73.5,66.6,29.88,WSW,256,3.0,6.0,79,0.00,,,0.00,Wunderground v.1.15,2013-06-17 17:51:00,
2013-06-17 13:52:00,73.4,66.5,29.88,West,270,2.0,6.0,79,0.00,,,0.00,Wunderground v.1.15,2013-06-17 17:52:00,
2013-06-17 13:53:00,73.4,66.9,29.88,SW,224,3.0,6.0,80,0.00,,,0.00,Wunderground v.1.15,2013-06-17 17:53:00,
2013-06-17 13:55:00,73.4,66.9,29.88,WSW,252,4.0,6.0,80,0.00,,,0.00,Wunderground v.1.15,2013-06-17 17:55:00,
2013-06-17 13:56:00,73.4,66.9,29.88,WSW,239,1.0,6.0,80,0.00,,,0.00,Wunderground v.1.15,2013-06-17 17:56:00,
2013-06-17 13:57:00,73.4,66.9,29.87,West,270,3.0,6.0,80,0.00,,,0.00,Wunderground v.1.15,2013-06-17 17:57:00,
2013-06-17 13:58:00,73.4,66.5,29.88,SW,222,6.0,7.0,79,0.00,,,0.00,Wunderground v.1.15,2013-06-17 17:58:00,
2013-06-17 14:00:00,73.3,66.8,29.87,West,259,2.0,5.0,80,0.00,,,0.00,Wunderground v.1.15,2013-06-17 18:00:00,
2013-06-17 14:01:00,73.3,66.8,29.88,WSW,250,5.0,7.0,80,0.00,,,0.00,Wunderground v.1.15,2013-06-17 18:01:00,
2013-06-17 14:02:00,73.3,66.8,29.87,WSW,246,4.0,7.0,80,0.00,,,0.00,Wunderground v.1.15,2013-06-17 18:02:00,
2013-06-17 14:03:00,73.3,66.8,29.87,WSW,246,1.0,7.0,80,0.00,,,0.00,Wunderground v.1.15,2013-06-17 18:03:00,
2013-06-17 14:05:00,73.3,67.1,29.88,SW,234,4.0,7.0,81,0.00,,,0.00,Wunderground v.1.15,2013-06-17 18:05:00,
2013-06-17 14:07:00,73.3,67.1,29.87,WSW,242,3.0,7.0,81,0.00,,,0.00,Wunderground v.1.15,2013-06-17 18:07:00,
2013-06-17 14:08:00,73.3,67.1,29.87,WSW,246,5.0,7.0,81,0.00,,,0.00,Wunderground v.1.15,2013-06-17 18:08:00,
2013-06-17 14:10:00,73.1,66.9,29.88,SW,233,3.0,6.0,81,0.00,,,0.00,Wunderground v.1.15,2013-06-17 18:10:00,
2013-06-17 14:12:00,72.8,66.6,29.88,WSW,242,5.0,6.0,81,0.00,,,0.00,Wunderground v.1.15,2013-06-17 18:12:00,
2013-06-17 14:13:00,72.8,66.6,29.88,WSW,242,5.0,6.0,81,0.00,,,0.00,Wunderground v.1.15,2013-06-17 18:13:00,
2013-06-17 14:15:00,72.6,66.4,29.87,SW,232,2.0,7.0,81,0.00,,,0.00,Wunderground v.1.15,2013-06-17 18:15:00,
2013-06-17 14:17:00,72.5,66.7,29.88,SW,229,4.0,7.0,82,0.00,,,0.00,Wunderground v.1.15,2013-06-17 18:17:00,
2013-06-17 14:18:00,72.5,66.7,29.88,WSW,249,3.0,7.0,82,0.00,,,0.00,Wunderground v.1.15,2013-06-17 18:18:00,
2013-06-17 14:21:00,72.1,65.9,29.87,WSW,255,4.0,5.0,81,0.00,,,0.00,Wunderground v.1.15,2013-06-17 18:21:00,
2013-06-17 14:30:00,62.2,61.0,29.90,N/A,-737280,0.0,-999.0,96,0.00,,,0.01,Wunderground v.1.15,2013-06-17 18:30:00,
2013-06-17 14:35:00,61.7,60.5,29.90,N/A,-737280,0.0,-999.0,96,0.00,,,0.01,Wunderground v.1.15,2013-06-17 18:35:00,
2013-06-17 14:40:00,61.7,60.5,29.90,N/A,-737280,0.0,-999.0,96,0.00,,,0.01,Wunderground v.1.15,2013-06-17 18:40:00,
2013-06-17 14:45:00,61.4,60.2,29.90,N/A,-737280,0.0,-999.0,96,0.00,,,0.01,Wunderground v.1.15,2013-06-17 18:45:00,
2013-06-17 14:50:00,61.4,60.2,29.90,N/A,-737280,0.0,-999.0,96,0.00,,,0.01,Wunderground v.1.15,2013-06-17 18:50:00,
2013-06-17 14:55:00,61.3,60.4,29.90,N/A,-737280,0.0,-999.0,97,0.00,,,0.01,Wunderground v.1.15,2013-06-17 18:55:00,
2013-06-17 15:00:00,61.3,60.4,29.90,N/A,-737280,0.0,-999.0,97,0.00,,,0.01,Wunderground v.1.15,2013-06-17 19:00:00,
2013-06-17 15:05:00,61.2,60.3,29.90,N/A,-737280,0.0,-999.0,97,0.00,,,0.01,Wunderground v.1.15,2013-06-17 19:05:00,
2013-06-17 15:10:00,61.2,60.3,29.90,N/A,-737280,0.0,-999.0,97,0.00,,,0.01,Wunderground v.1.15,2013-06-17 19:10:00,
2013-06-17 15:15:00,61.2,60.3,29.89,N/A,-737280,0.0,-999.0,97,0.00,,,0.01,Wunderground v.1.15,2013-06-17 19:15:00,
2013-06-17 15:20:00,61.2,60.3,29.89,N/A,-737280,0.0,-999.0,97,0.00,,,0.01,Wunderground v.1.15,2013-06-17 19:20:00,
2013-06-17 15:25:00,60.8,59.9,29.90,N/A,-737280,0.0,-999.0,97,0.00,,,0.01,Wunderground v.1.15,2013-06-17 19:25:00,
2013-06-17 15:30:00,60.8,59.9,29.90,N/A,-737280,0.0,-999.0,97,0.00,,,0.01,Wunderground v.1.15,2013-06-17 19:30:00,
2013-06-17 15:35:00,60.9,60.0,29.90,N/A,-737280,0.0,-999.0,97,0.00,,,0.01,Wunderground v.1.15,2013-06-17 19:35:00,
2013-06-17 15:40:00,60.9,60.0,29.90,N/A,-737280,0.0,-999.0,97,0.00,,,0.01,Wunderground v.1.15,2013-06-17 19:40:00,
2013-06-17 15:45:00,60.8,59.9,29.90,N/A,-737280,0.0,-999.0,97,0.00,,,0.01,Wunderground v.1.15,2013-06-17 19:45:00,
2013-06-17 15:50:00,60.8,59.9,29.90,N/A,-737280,0.0,-999.0,97,0.00,,,0.01,Wunderground v.1.15,2013-06-17 19:50:00,
2013-06-17 15:55:00,60.8,59.9,29.90,N/A,-737280,0.0,-999.0,97,0.00,,,0.01,Wunderground v.1.15,2013-06-17 19:55:00,
2013-06-17 16:00:00,60.8,59.9,29.90,N/A,-737280,0.0,-999.0,97,0.00,,,0.01,Wunderground v.1.15,2013-06-17 20:00:00,
2013-06-17 16:05:00,60.9,60.0,29.89,N/A,-737280,0.0,-999.0,97,0.00,,,0.01,Wunderground v.1.15,2013-06-17 20:05:00,
2013-06-17 16:10:00,60.9,60.0,29.89,N/A,-737280,0.0,-999.0,97,0.00,,,0.01,Wunderground v.1.15,2013-06-17 20:10:00,
2013-06-17 16:15:00,60.7,59.8,29.90,N/A,-737280,0.0,-999.0,97,0.00,,,0.01,Wunderground v.1.15,2013-06-17 20:15:00,
2013-06-17 16:20:00,60.7,59.8,29.90,N/A,-737280,0.0,-999.0,97,0.00,,,0.01,Wunderground v.1.15,2013-06-17 20:20:00,
2013-06-17 16:25:00,60.8,60.2,29.91,N/A,-737280,0.0,-999.0,98,0.00,,,0.01,Wunderground v.1.15,2013-06-17 20:25:00,
2013-06-17 16:30:00,60.8,60.2,29.91,N/A,-737280,0.0,-999.0,98,0.00,,,0.01,Wunderground v.1.15,2013-06-17 20:30:00,
2013-06-17 16:35:00,60.8,60.2,29.91,N/A,-737280,0.0,-999.0,98,0.00,,,0.01,Wunderground v.1.15,2013-06-17 20:35:00,
2013-06-17 16:40:00,60.8,60.2,29.91,N/A,-737280,0.0,-999.0,98,0.00,,,0.01,Wunderground v.1.15,2013-06-17 20:40:00,
2013-06-17 16:45:00,60.6,59.7,29.91,N/A,-737280,0.0,-999.0,97,0.00,,,0.01,Wunderground v.1.15,2013-06-17 20:45:00,
2013-06-17 16:50:00,60.6,59.7,29.91,N/A,-737280,0.0,-999.0,97,0.00,,,0.01,Wunderground v.1.15,2013-06-17 20:50:00,
2013-06-17 16:55:00,60.6,60.0,29.91,N/A,-737280,0.0,-999.0,98,0.00,,,0.01,Wunderground v.1.15,2013-06-17 20:55:00,
2013-06-17 17:00:00,60.6,60.0,29.91,N/A,-737280,0.0,-999.0,98,0.00,,,0.01,Wunderground v.1.15,2013-06-17 21:00:00,
2013-06-17 17:05:00,60.4,59.5,29.91,N/A,-737280,0.0,-999.0,97,0.00,,,0.01,Wunderground v.1.15,2013-06-17 21:05:00,